Time,TemperatureF,DewpointF,PressureIn,WindDirection,WindDirectionDegrees,WindSpeedMPH,WindSpeedGustMPH,Humidity,HourlyPrecipIn,Conditions,Clouds,dailyrainin,SoftwareType,DateUTC
2013-08-07 00:15:00,59.1,52.3,30.15,North,3,1.0,2.0,78,0.00,,---,0.00,VWS V14.01,2013-08-07 04:15:00,
2013-08-07 00:16:00,59.0,52.2,30.15,North,3,2.0,2.0,78,0.00,,---,0.00,VWS V14.01,2013-08-07 04:16:00,
2013-08-07 00:20:00,58.9,52.4,30.15,North,4,1.0,2.0,79,0.00,,---,0.00,VWS V14.01,2013-08-07 04:20:00,
2013-08-07 00:21:00,58.8,52.3,30.15,North,3,2.0,2.0,79,0.00,,---,0.00,VWS V14.01,2013-08-07 04:21:00,
2013-08-07 00:25:00,58.6,52.1,30.14,North,358,3.0,3.0,79,0.00,,---,0.00,VWS V14.01,2013-08-07 04:25:00,
2013-08-07 00:26:00,58.6,52.1,30.14,NNE,13,3.0,3.0,79,0.00,,---,0.00,VWS V14.01,2013-08-07 04:26:00,
2013-08-07 00:27:00,58.6,52.5,30.14,North,9,2.0,3.0,80,0.00,,---,0.00,VWS V14.01,2013-08-07 04:27:00,
2013-08-07 00:30:00,58.2,51.7,30.14,North,358,3.0,4.0,79,0.00,,---,0.00,VWS V14.01,2013-08-07 04:30:00,
2013-08-07 00:31:00,58.1,51.6,30.14,North,353,3.0,4.0,79,0.00,,---,0.00,VWS V14.01,2013-08-07 04:31:00,
2013-08-07 00:33:00,57.9,51.4,30.14,North,4,3.0,4.0,79,0.00,,---,0.00,VWS V14.01,2013-08-07 04:33:00,
2013-08-07 00:36:00,57.8,51.3,30.14,North,4,3.0,4.0,79,0.00,,---,0.00,VWS V14.01,2013-08-07 04:36:00,
2013-08-07 00:37:00,57.8,51.3,30.14,North,1,1.0,4.0,79,0.00,,---,0.00,VWS V14.01,2013-08-07 04:37:00,
2013-08-07 00:39:00,57.8,51.7,30.14,NNW,342,2.0,4.0,80,0.00,,---,0.00,VWS V14.01,2013-08-07 04:39:00,
2013-08-07 00:40:00,57.8,51.7,30.14,North,352,2.0,4.0,80,0.00,,---,0.00,VWS V14.01,2013-08-07 04:40:00,
2013-08-07 00:42:00,57.7,51.2,30.14,NNW,345,2.0,4.0,79,0.00,,---,0.00,VWS V14.01,2013-08-07 04:42:00,
2013-08-07 00:43:00,57.7,51.6,30.14,North,354,2.0,4.0,80,0.00,,---,0.00,VWS V14.01,2013-08-07 04:43:00,
2013-08-07 00:45:00,57.6,51.8,30.15,NW,326,2.0,4.0,81,0.00,,---,0.00,VWS V14.01,2013-08-07 04:45:00,
2013-08-07 00:46:00,57.6,51.8,30.15,NNW,337,2.0,4.0,81,0.00,,---,0.00,VWS V14.01,2013-08-07 04:46:00,
2013-08-07 00:48:00,57.6,51.5,30.15,North,5,0.0,4.0,80,0.00,,---,0.00,VWS V14.01,2013-08-07 04:48:00,
2013-08-07 00:50:00,57.6,51.8,30.15,North,4,0.0,4.0,81,0.00,,---,0.00,VWS V14.01,2013-08-07 04:50:00,
2013-08-07 00:51:00,57.6,51.8,30.15,North,3,0.0,4.0,81,0.00,,---,0.00,VWS V14.01,2013-08-07 04:51:00,
2013-08-07 00:53:00,57.5,51.7,30.15,North,4,0.0,4.0,81,0.00,,---,0.00,VWS V14.01,2013-08-07 04:53:00,
2013-08-07 00:54:00,57.5,51.7,30.15,North,4,0.0,4.0,81,0.00,,---,0.00,VWS V14.01,2013-08-07 04:54:00,
2013-08-07 00:55:00,57.4,51.6,30.15,North,3,0.0,4.0,81,0.00,,---,0.00,VWS V14.01,2013-08-07 04:55:00,
2013-08-07 00:56:00,57.4,51.6,30.15,North,4,1.0,4.0,81,0.00,,---,0.00,VWS V14.01,2013-08-07 04:56:00,
2013-08-07 00:57:00,57.2,51.8,30.15,North,3,2.0,4.0,82,0.00,,---,0.00,VWS V14.01,2013-08-07 04:57:00,
2013-08-07 00:59:00,57.0,51.6,30.15,North,354,4.0,4.0,82,0.00,,---,0.00,VWS V14.01,2013-08-07 04:59:00,
2013-08-07 01:00:00,56.7,51.3,30.15,North,356,3.0,4.0,82,0.00,,---,0.00,VWS V14.01,2013-08-07 05:00:00,
2013-08-07 01:01:00,56.7,51.6,30.15,North,349,3.0,4.0,83,0.00,,---,0.00,VWS V14.01,2013-08-07 05:01:00,
2013-08-07 01:02:00,56.6,51.5,30.15,NNW,339,2.0,4.0,83,0.00,,---,0.00,VWS V14.01,2013-08-07 05:02:00,
2013-08-07 01:03:00,56.4,51.6,30.15,North,356,2.0,4.0,84,0.00,,---,0.00,VWS V14.01,2013-08-07 05:03:00,
2013-08-07 01:04:00,56.3,51.5,30.15,NNW,347,2.0,4.0,84,0.00,,---,0.00,VWS V14.01,2013-08-07 05:04:00,
2013-08-07 01:06:00,56.2,51.4,30.15,North,354,3.0,4.0,84,0.00,,---,0.00,VWS V14.01,2013-08-07 05:06:00,
2013-08-07 01:08:00,56.1,51.3,30.15,North,3,2.0,4.0,84,0.00,,---,0.00,VWS V14.01,2013-08-07 05:08:00,
2013-08-07 01:10:00,56.1,51.3,30.15,North,6,3.0,4.0,84,0.00,,---,0.00,VWS V14.01,2013-08-07 05:10:00,
2013-08-07 01:11:00,56.1,51.3,30.15,North,356,4.0,4.0,84,0.00,,---,0.00,VWS V14.01,2013-08-07 05:11:00,
2013-08-07 01:14:00,56.0,51.2,30.15,North,354,4.0,5.0,84,0.00,,---,0.00,VWS V14.01,2013-08-07 05:14:00,
2013-08-07 01:17:00,55.9,51.1,30.15,North,356,3.0,5.0,84,0.00,,---,0.00,VWS V14.01,2013-08-07 05:17:00,
2013-08-07 01:18:00,55.9,51.1,30.15,NNW,347,4.0,5.0,84,0.00,,---,0.00,VWS V14.01,2013-08-07 05:18:00,
2013-08-07 01:20:00,55.8,51.0,30.15,North,356,2.0,5.0,84,0.00,,---,0.00,VWS V14.01,2013-08-07 05:20:00,
2013-08-07 01:23:00,55.8,51.0,30.15,North,356,3.0,5.0,84,0.00,,---,0.00,VWS V14.01,2013-08-07 05:23:00,
2013-08-07 01:24:00,55.8,51.0,30.15,North,5,2.0,5.0,84,0.00,,---,0.00,VWS V14.01,2013-08-07 05:24:00,
2013-08-07 01:25:00,55.9,51.1,30.15,North,6,3.0,5.0,84,0.00,,---,0.00,VWS V14.01,2013-08-07 05:25:00,
2013-08-07 01:28:00,56.1,51.3,30.15,North,354,3.0,5.0,84,0.00,,---,0.00,VWS V14.01,2013-08-07 05:28:00,
2013-08-07 01:29:00,56.1,51.3,30.15,NNW,345,2.0,3.0,84,0.00,,---,0.00,VWS V14.01,2013-08-07 05:29:00,
2013-08-07 01:30:00,56.2,51.4,30.15,North,349,3.0,3.0,84,0.00,,---,0.00,VWS V14.01,2013-08-07 05:30:00,
2013-08-07 01:31:00,56.2,51.4,30.15,North,354,2.0,3.0,84,0.00,,---,0.00,VWS V14.01,2013-08-07 05:31:00,
2013-08-07 01:34:00,56.2,51.1,30.15,North,1,2.0,3.0,83,0.00,,---,0.00,VWS V14.01,2013-08-07 05:34:00,
2013-08-07 01:35:00,56.2,51.1,30.15,North,3,1.0,3.0,83,0.00,,---,0.00,VWS V14.01,2013-08-07 05:35:00,
2013-08-07 01:36:00,56.3,51.2,30.15,North,3,1.0,3.0,83,0.00,,---,0.00,VWS V14.01,2013-08-07 05:36:00,
2013-08-07 01:38:00,56.3,51.2,30.15,North,3,2.0,3.0,83,0.00,,---,0.00,VWS V14.01,2013-08-07 05:38:00,
2013-08-07 01:39:00,56.3,51.2,30.15,North,5,3.0,3.0,83,0.00,,---,0.00,VWS V14.01,2013-08-07 05:39:00,
2013-08-07 01:41:00,56.3,51.2,30.15,North,9,2.0,3.0,83,0.00,,---,0.00,VWS V14.01,2013-08-07 05:41:00,
2013-08-07 01:42:00,56.3,51.2,30.15,North,6,2.0,3.0,83,0.00,,---,0.00,VWS V14.01,2013-08-07 05:42:00,
2013-08-07 01:43:00,56.3,51.2,30.15,NNW,342,2.0,3.0,83,0.00,,---,0.00,VWS V14.01,2013-08-07 05:43:00,
2013-08-07 01:45:00,56.3,51.2,30.15,NNW,336,1.0,3.0,83,0.00,,---,0.00,VWS V14.01,2013-08-07 05:45:00,
2013-08-07 01:46:00,56.2,51.4,30.15,NNW,342,1.0,3.0,84,0.00,,---,0.00,VWS V14.01,2013-08-07 05:46:00,
2013-08-07 01:47:00,56.2,51.4,30.15,NNW,342,1.0,3.0,84,0.00,,---,0.00,VWS V14.01,2013-08-07 05:47:00,
2013-08-07 01:49:00,56.1,51.3,30.15,North,352,1.0,3.0,84,0.00,,---,0.00,VWS V14.01,2013-08-07 05:49:00,
2013-08-07 01:50:00,56.1,51.3,30.15,North,352,1.0,3.0,84,0.00,,---,0.00,VWS V14.01,2013-08-07 05:50:00,
2013-08-07 01:52:00,56.0,51.6,30.15,North,352,0.0,3.0,85,0.00,,---,0.00,VWS V14.01,2013-08-07 05:52:00,
2013-08-07 01:53:00,56.0,51.6,30.15,North,352,0.0,3.0,85,0.00,,---,0.00,VWS V14.01,2013-08-07 05:53:00,
2013-08-07 01:55:00,56.0,51.6,30.15,North,352,0.0,3.0,85,0.00,,---,0.00,VWS V14.01,2013-08-07 05:55:00,
2013-08-07 01:57:00,55.9,51.5,30.15,NNW,333,1.0,3.0,85,0.00,,---,0.00,VWS V14.01,2013-08-07 05:57:00,
2013-08-07 01:59:00,55.8,51.4,30.15,North,352,0.0,1.0,85,0.00,,---,0.00,VWS V14.01,2013-08-07 05:59:00,
2013-08-07 02:00:00,55.7,51.6,30.15,North,352,0.0,1.0,86,0.00,,---,0.00,VWS V14.01,2013-08-07 06:00:00,
2013-08-07 02:02:00,55.6,51.5,30.15,North,352,0.0,1.0,86,0.00,,---,0.00,VWS V14.01,2013-08-07 06:02:00,
2013-08-07 02:03:00,55.6,51.5,30.15,North,351,0.0,1.0,86,0.00,,---,0.00,VWS V14.01,2013-08-07 06:03:00,
2013-08-07 02:04:00,55.6,51.5,30.15,North,352,0.0,1.0,86,0.00,,---,0.00,VWS V14.01,2013-08-07 06:04:00,
2013-08-07 02:06:00,55.5,51.4,30.15,North,349,0.0,1.0,86,0.00,,---,0.00,VWS V14.01,2013-08-07 06:06:00,
2013-08-07 02:08:00,55.4,51.3,30.15,North,351,0.0,1.0,86,0.00,,---,0.00,VWS V14.01,2013-08-07 06:08:00,
2013-08-07 02:10:00,55.2,51.4,30.15,North,359,2.0,2.0,87,0.00,,---,0.00,VWS V14.01,2013-08-07 06:10:00,
2013-08-07 02:11:00,55.2,51.4,30.15,North,354,2.0,2.0,87,0.00,,---,0.00,VWS V14.01,2013-08-07 06:11:00,
2013-08-07 02:12:00,55.1,51.3,30.15,North,357,1.0,2.0,87,0.00,,---,0.00,VWS V14.01,2013-08-07 06:12:00,
2013-08-07 02:13:00,55.0,51.2,30.15,North,357,2.0,2.0,87,0.00,,---,0.00,VWS V14.01,2013-08-07 06:13:00,
2013-08-07 02:14:00,55.0,51.2,30.15,North,356,1.0,2.0,87,0.00,,---,0.00,VWS V14.01,2013-08-07 06:14:00,
2013-08-07 02:16:00,54.9,51.1,30.15,North,357,2.0,2.0,87,0.00,,---,0.00,VWS V14.01,2013-08-07 06:16:00,
2013-08-07 02:17:00,54.9,51.1,30.15,North,356,2.0,2.0,87,0.00,,---,0.00,VWS V14.01,2013-08-07 06:17:00,
2013-08-07 02:18:00,54.8,51.3,30.15,North,356,2.0,2.0,88,0.00,,---,0.00,VWS V14.01,2013-08-07 06:18:00,
2013-08-07 02:19:00,54.8,51.3,30.15,North,355,1.0,2.0,88,0.00,,---,0.00,VWS V14.01,2013-08-07 06:19:00,
2013-08-07 02:20:00,54.8,51.3,30.15,North,356,1.0,2.0,88,0.00,,---,0.00,VWS V14.01,2013-08-07 06:20:00,
2013-08-07 02:22:00,54.7,51.2,30.15,North,352,1.0,2.0,88,0.00,,---,0.00,VWS V14.01,2013-08-07 06:22:00,
2013-08-07 02:23:00,54.7,51.2,30.15,North,352,1.0,2.0,88,0.00,,---,0.00,VWS V14.01,2013-08-07 06:23:00,
2013-08-07 02:24:00,54.6,51.1,30.15,North,351,1.0,2.0,88,0.00,,---,0.00,VWS V14.01,2013-08-07 06:24:00,
2013-08-07 02:25:00,54.6,51.1,30.15,North,352,0.0,2.0,88,0.00,,---,0.00,VWS V14.01,2013-08-07 06:25:00,
2013-08-07 02:28:00,54.5,51.0,30.15,North,352,0.0,2.0,88,0.00,,---,0.00,VWS V14.01,2013-08-07 06:28:00,
2013-08-07 02:30:00,54.5,51.3,30.15,North,351,0.0,0.0,89,0.00,,---,0.00,VWS V14.01,2013-08-07 06:30:00,
2013-08-07 02:31:00,54.4,51.2,30.15,North,352,0.0,0.0,89,0.00,,---,0.00,VWS V14.01,2013-08-07 06:31:00,
2013-08-07 02:32:00,54.5,51.3,30.15,North,352,0.0,0.0,89,0.00,,---,0.00,VWS V14.01,2013-08-07 06:32:00,
2013-08-07 02:33:00,54.5,51.3,30.15,North,352,0.0,0.0,89,0.00,,---,0.00,VWS V14.01,2013-08-07 06:33:00,
2013-08-07 02:34:00,54.5,51.3,30.15,North,358,1.0,2.0,89,0.00,,---,0.00,VWS V14.01,2013-08-07 06:34:00,
2013-08-07 02:36:00,54.5,51.3,30.15,North,360,1.0,2.0,89,0.00,,---,0.00,VWS V14.01,2013-08-07 06:36:00,
2013-08-07 02:37:00,54.6,51.4,30.15,North,360,1.0,2.0,89,0.00,,---,0.00,VWS V14.01,2013-08-07 06:37:00,
2013-08-07 02:38:00,54.6,51.4,30.15,North,360,1.0,2.0,89,0.00,,---,0.00,VWS V14.01,2013-08-07 06:38:00,
2013-08-07 02:39:00,54.6,51.4,30.15,North,359,1.0,2.0,89,0.00,,---,0.00,VWS V14.01,2013-08-07 06:39:00,
2013-08-07 02:43:00,54.7,51.5,30.15,North,359,1.0,2.0,89,0.00,,---,0.00,VWS V14.01,2013-08-07 06:43:00,
2013-08-07 02:44:00,54.7,51.5,30.15,North,359,1.0,2.0,89,0.00,,---,0.00,VWS V14.01,2013-08-07 06:44:00,
2013-08-07 02:47:00,54.7,51.5,30.15,NNW,342,1.0,2.0,89,0.00,,---,0.00,VWS V14.01,2013-08-07 06:47:00,
2013-08-07 02:48:00,54.7,51.5,30.15,NNW,342,0.0,2.0,89,0.00,,---,0.00,VWS V14.01,2013-08-07 06:48:00,
2013-08-07 02:49:00,54.7,51.5,30.15,NNW,342,0.0,2.0,89,0.00,,---,0.00,VWS V14.01,2013-08-07 06:49:00,
2013-08-07 02:50:00,54.6,51.4,30.15,NNW,342,0.0,2.0,89,0.00,,---,0.00,VWS V14.01,2013-08-07 06:50:00,
2013-08-07 02:52:00,54.7,51.8,30.15,NNW,342,0.0,2.0,90,0.00,,---,0.00,VWS V14.01,2013-08-07 06:52:00,
2013-08-07 02:53:00,54.7,51.8,30.15,NNW,342,0.0,2.0,90,0.00,,---,0.00,VWS V14.01,2013-08-07 06:53:00,
2013-08-07 02:54:00,54.7,51.8,30.15,NNW,342,0.0,2.0,90,0.00,,---,0.00,VWS V14.01,2013-08-07 06:54:00,
2013-08-07 02:55:00,54.7,51.8,30.15,NNW,342,0.0,2.0,90,0.00,,---,0.00,VWS V14.01,2013-08-07 06:55:00,
2013-08-07 02:57:00,54.7,51.8,30.16,NNW,342,0.0,2.0,90,0.00,,---,0.00,VWS V14.01,2013-08-07 06:57:00,
2013-08-07 02:58:00,54.7,51.8,30.16,NNW,342,0.0,0.0,90,0.00,,---,0.00,VWS V14.01,2013-08-07 06:58:00,
2013-08-07 03:00:00,54.7,51.8,30.16,NNW,342,0.0,0.0,90,0.00,,---,0.00,VWS V14.01,2013-08-07 07:00:00,
2013-08-07 03:01:00,54.7,51.8,30.16,NNW,341,0.0,0.0,90,0.00,,---,0.00,VWS V14.01,2013-08-07 07:01:00,
2013-08-07 03:03:00,54.7,51.8,30.15,NNW,342,0.0,0.0,90,0.00,,---,0.00,VWS V14.01,2013-08-07 07:03:00,
2013-08-07 03:04:00,54.7,51.8,30.16,NNW,342,0.0,0.0,90,0.00,,---,0.00,VWS V14.01,2013-08-07 07:04:00,
2013-08-07 03:05:00,54.7,51.8,30.16,NNW,341,0.0,0.0,90,0.00,,---,0.00,VWS V14.01,2013-08-07 07:05:00,
2013-08-07 03:06:00,54.7,51.8,30.16,NNW,342,0.0,0.0,90,0.00,,---,0.00,VWS V14.01,2013-08-07 07:06:00,
2013-08-07 03:08:00,54.7,51.8,30.16,NNW,342,0.0,0.0,90,0.00,,---,0.00,VWS V14.01,2013-08-07 07:08:00,
2013-08-07 03:11:00,54.7,52.1,30.16,NNW,341,0.0,0.0,91,0.00,,---,0.00,VWS V14.01,2013-08-07 07:11:00,
2013-08-07 03:12:00,54.7,52.1,30.16,NNW,342,0.0,0.0,91,0.00,,---,0.00,VWS V14.01,2013-08-07 07:12:00,
2013-08-07 03:13:00,54.7,52.1,30.16,NNW,341,0.0,0.0,91,0.00,,---,0.00,VWS V14.01,2013-08-07 07:13:00,
2013-08-07 03:16:00,54.8,52.2,30.16,NNW,342,0.0,0.0,91,0.00,,---,0.00,VWS V14.01,2013-08-07 07:16:00,
2013-08-07 03:17:00,54.8,52.2,30.16,NNW,342,0.0,0.0,91,0.00,,---,0.00,VWS V14.01,2013-08-07 07:17:00,
2013-08-07 03:19:00,54.8,52.2,30.16,NNW,341,0.0,0.0,91,0.00,,---,0.00,VWS V14.01,2013-08-07 07:19:00,
2013-08-07 03:20:00,54.8,52.2,30.16,NNW,342,0.0,0.0,91,0.00,,---,0.00,VWS V14.01,2013-08-07 07:20:00,
2013-08-07 03:21:00,54.8,52.2,30.16,NNW,342,0.0,0.0,91,0.00,,---,0.00,VWS V14.01,2013-08-07 07:21:00,
2013-08-07 03:23:00,54.7,52.1,30.16,NNW,341,0.0,0.0,91,0.00,,---,0.00,VWS V14.01,2013-08-07 07:23:00,
2013-08-07 03:24:00,54.7,52.1,30.16,NNW,343,0.0,0.0,91,0.00,,---,0.00,VWS V14.01,2013-08-07 07:24:00,
2013-08-07 03:25:00,54.7,52.1,30.16,NNW,343,0.0,0.0,91,0.00,,---,0.00,VWS V14.01,2013-08-07 07:25:00,
2013-08-07 03:26:00,54.7,52.4,30.16,NNW,343,0.0,0.0,92,0.00,,---,0.00,VWS V14.01,2013-08-07 07:26:00,
2013-08-07 03:28:00,54.6,52.0,30.16,NNW,343,0.0,0.0,91,0.00,,---,0.00,VWS V14.01,2013-08-07 07:28:00,
2013-08-07 03:29:00,54.5,51.9,30.16,North,352,2.0,2.0,91,0.00,,---,0.00,VWS V14.01,2013-08-07 07:29:00,
2013-08-07 03:30:00,54.4,51.8,30.16,North,352,1.0,2.0,91,0.00,,---,0.00,VWS V14.01,2013-08-07 07:30:00,
2013-08-07 03:32:00,54.3,51.7,30.16,North,350,1.0,2.0,91,0.00,,---,0.00,VWS V14.01,2013-08-07 07:32:00,
2013-08-07 03:33:00,54.2,51.6,30.16,North,350,1.0,2.0,91,0.00,,---,0.00,VWS V14.01,2013-08-07 07:33:00,
2013-08-07 03:34:00,54.1,51.5,30.16,North,350,1.0,2.0,91,0.00,,---,0.00,VWS V14.01,2013-08-07 07:34:00,
2013-08-07 03:35:00,54.1,51.5,30.16,North,350,1.0,2.0,91,0.00,,---,0.00,VWS V14.01,2013-08-07 07:35:00,
2013-08-07 03:36:00,54.1,51.5,30.16,North,350,0.0,2.0,91,0.00,,---,0.00,VWS V14.01,2013-08-07 07:36:00,
2013-08-07 03:37:00,54.1,51.8,30.16,North,350,0.0,2.0,92,0.00,,---,0.00,VWS V14.01,2013-08-07 07:37:00,
2013-08-07 03:39:00,54.0,51.7,30.16,North,350,1.0,2.0,92,0.00,,---,0.00,VWS V14.01,2013-08-07 07:39:00,
2013-08-07 03:40:00,54.0,51.7,30.16,North,350,1.0,2.0,92,0.00,,---,0.00,VWS V14.01,2013-08-07 07:40:00,
2013-08-07 03:42:00,53.9,51.6,30.16,North,349,1.0,2.0,92,0.00,,---,0.00,VWS V14.01,2013-08-07 07:42:00,
2013-08-07 03:44:00,53.8,51.5,30.16,North,350,1.0,2.0,92,0.00,,---,0.00,VWS V14.01,2013-08-07 07:44:00,
2013-08-07 03:46:00,53.7,51.4,30.16,North,350,1.0,2.0,92,0.00,,---,0.00,VWS V14.01,2013-08-07 07:46:00,
2013-08-07 03:47:00,53.7,51.4,30.16,North,350,1.0,2.0,92,0.00,,---,0.00,VWS V14.01,2013-08-07 07:47:00,
2013-08-07 03:48:00,53.7,51.4,30.16,North,350,1.0,2.0,92,0.00,,---,0.00,VWS V14.01,2013-08-07 07:48:00,
2013-08-07 03:50:00,53.7,51.4,30.16,North,349,1.0,2.0,92,0.00,,---,0.00,VWS V14.01,2013-08-07 07:50:00,
2013-08-07 03:51:00,53.7,51.4,30.16,North,350,0.0,2.0,92,0.00,,---,0.00,VWS V14.01,2013-08-07 07:51:00,
2013-08-07 03:52:00,53.6,51.3,30.16,North,349,0.0,2.0,92,0.00,,---,0.00,VWS V14.01,2013-08-07 07:52:00,
2013-08-07 03:54:00,53.7,51.7,30.16,North,350,0.0,2.0,93,0.00,,---,0.00,VWS V14.01,2013-08-07 07:54:00,
2013-08-07 03:55:00,53.7,51.7,30.16,North,349,0.0,2.0,93,0.00,,---,0.00,VWS V14.01,2013-08-07 07:55:00,
2013-08-07 03:57:00,53.8,51.8,30.16,North,349,1.0,2.0,93,0.00,,---,0.00,VWS V14.01,2013-08-07 07:57:00,
2013-08-07 03:58:00,53.8,51.8,30.16,North,349,0.0,2.0,93,0.00,,---,0.00,VWS V14.01,2013-08-07 07:58:00,
2013-08-07 04:00:00,53.8,51.8,30.16,North,349,0.0,1.0,93,0.00,,---,0.00,VWS V14.01,2013-08-07 08:00:00,
2013-08-07 04:01:00,53.9,51.9,30.16,North,350,0.0,1.0,93,0.00,,---,0.00,VWS V14.01,2013-08-07 08:01:00,
2013-08-07 04:03:00,53.9,51.9,30.16,North,350,1.0,1.0,93,0.00,,---,0.00,VWS V14.01,2013-08-07 08:03:00,
2013-08-07 04:04:00,53.8,51.8,30.16,North,350,1.0,1.0,93,0.00,,---,0.00,VWS V14.01,2013-08-07 08:04:00,
2013-08-07 04:05:00,53.8,51.5,30.16,North,350,1.0,1.0,92,0.00,,---,0.00,VWS V14.01,2013-08-07 08:05:00,
2013-08-07 04:06:00,53.7,51.4,30.16,North,350,0.0,1.0,92,0.00,,---,0.00,VWS V14.01,2013-08-07 08:06:00,
2013-08-07 04:09:00,53.6,51.3,30.16,North,349,1.0,1.0,92,0.00,,---,0.00,VWS V14.01,2013-08-07 08:09:00,
2013-08-07 04:10:00,53.5,51.2,30.16,North,350,1.0,1.0,92,0.00,,---,0.00,VWS V14.01,2013-08-07 08:10:00,
2013-08-07 04:11:00,53.5,51.2,30.16,North,349,1.0,1.0,92,0.00,,---,0.00,VWS V14.01,2013-08-07 08:11:00,
2013-08-07 04:12:00,53.5,51.2,30.16,North,350,0.0,1.0,92,0.00,,---,0.00,VWS V14.01,2013-08-07 08:12:00,
2013-08-07 04:13:00,53.4,51.1,30.16,North,352,1.0,1.0,92,0.00,,---,0.00,VWS V14.01,2013-08-07 08:13:00,
2013-08-07 04:15:00,53.3,51.0,30.16,North,352,2.0,2.0,92,0.00,,---,0.00,VWS V14.01,2013-08-07 08:15:00,
2013-08-07 04:16:00,53.2,50.9,30.16,NNW,348,2.0,2.0,92,0.00,,---,0.00,VWS V14.01,2013-08-07 08:16:00,
2013-08-07 04:17:00,53.2,50.9,30.16,NNW,347,1.0,2.0,92,0.00,,---,0.00,VWS V14.01,2013-08-07 08:17:00,
2013-08-07 04:18:00,53.1,50.8,30.16,NNW,347,1.0,2.0,92,0.00,,---,0.00,VWS V14.01,2013-08-07 08:18:00,
2013-08-07 04:21:00,53.0,50.7,30.16,North,349,1.0,2.0,92,0.00,,---,0.00,VWS V14.01,2013-08-07 08:21:00,
2013-08-07 04:22:00,52.9,50.9,30.16,North,350,1.0,2.0,93,0.00,,---,0.00,VWS V14.01,2013-08-07 08:22:00,
2013-08-07 04:24:00,52.9,50.9,30.16,North,350,0.0,2.0,93,0.00,,---,0.00,VWS V14.01,2013-08-07 08:24:00,
2013-08-07 04:26:00,52.8,50.8,30.17,North,349,0.0,2.0,93,0.00,,---,0.00,VWS V14.01,2013-08-07 08:26:00,
2013-08-07 04:27:00,52.8,50.8,30.16,North,350,0.0,2.0,93,0.00,,---,0.00,VWS V14.01,2013-08-07 08:27:00,
2013-08-07 04:28:00,52.8,50.8,30.16,North,350,0.0,2.0,93,0.00,,---,0.00,VWS V14.01,2013-08-07 08:28:00,
2013-08-07 04:29:00,52.8,50.8,30.17,North,350,0.0,0.0,93,0.00,,---,0.00,VWS V14.01,2013-08-07 08:29:00,
2013-08-07 04:32:00,52.8,50.8,30.16,North,350,0.0,0.0,93,0.00,,---,0.00,VWS V14.01,2013-08-07 08:32:00,
2013-08-07 04:33:00,52.7,50.7,30.16,North,350,1.0,1.0,93,0.00,,---,0.00,VWS V14.01,2013-08-07 08:33:00,
2013-08-07 04:34:00,52.7,50.7,30.17,North,350,2.0,2.0,93,0.00,,---,0.00,VWS V14.01,2013-08-07 08:34:00,
2013-08-07 04:38:00,52.6,50.6,30.17,North,349,1.0,2.0,93,0.00,,---,0.00,VWS V14.01,2013-08-07 08:38:00,
2013-08-07 04:39:00,52.5,50.5,30.17,North,350,1.0,2.0,93,0.00,,---,0.00,VWS V14.01,2013-08-07 08:39:00,
2013-08-07 04:40:00,52.5,50.5,30.17,NNW,348,1.0,2.0,93,0.00,,---,0.00,VWS V14.01,2013-08-07 08:40:00,
2013-08-07 04:43:00,52.5,50.8,30.17,North,349,0.0,2.0,94,0.00,,---,0.00,VWS V14.01,2013-08-07 08:43:00,
2013-08-07 04:44:00,52.6,50.9,30.17,North,349,0.0,2.0,94,0.00,,---,0.00,VWS V14.01,2013-08-07 08:44:00,
2013-08-07 04:46:00,52.7,51.0,30.17,North,349,1.0,2.0,94,0.00,,---,0.00,VWS V14.01,2013-08-07 08:46:00,
2013-08-07 04:48:00,52.7,51.0,30.17,NNW,348,1.0,2.0,94,0.00,,---,0.00,VWS V14.01,2013-08-07 08:48:00,
2013-08-07 04:49:00,52.8,51.1,30.17,North,349,0.0,2.0,94,0.00,,---,0.00,VWS V14.01,2013-08-07 08:49:00,
2013-08-07 04:50:00,52.8,51.1,30.17,North,349,1.0,2.0,94,0.00,,---,0.00,VWS V14.01,2013-08-07 08:50:00,
2013-08-07 04:51:00,52.8,51.1,30.17,NNW,348,1.0,2.0,94,0.00,,---,0.00,VWS V14.01,2013-08-07 08:51:00,
2013-08-07 04:53:00,52.8,51.1,30.17,North,349,1.0,2.0,94,0.00,,---,0.00,VWS V14.01,2013-08-07 08:53:00,
2013-08-07 04:54:00,52.8,50.8,30.17,NNW,348,1.0,2.0,93,0.00,,---,0.00,VWS V14.01,2013-08-07 08:54:00,
2013-08-07 04:55:00,52.9,50.9,30.17,NNW,348,1.0,2.0,93,0.00,,---,0.00,VWS V14.01,2013-08-07 08:55:00,
2013-08-07 04:56:00,52.8,50.8,30.17,NNW,348,1.0,2.0,93,0.00,,---,0.00,VWS V14.01,2013-08-07 08:56:00,
2013-08-07 04:58:00,52.8,50.8,30.17,NNW,348,0.0,0.0,93,0.00,,---,0.00,VWS V14.01,2013-08-07 08:58:00,
2013-08-07 05:00:00,52.8,50.8,30.17,North,349,0.0,0.0,93,0.00,,---,0.00,VWS V14.01,2013-08-07 09:00:00,
2013-08-07 05:02:00,52.9,50.9,30.17,NNW,348,0.0,0.0,93,0.00,,---,0.00,VWS V14.01,2013-08-07 09:02:00,
2013-08-07 05:03:00,52.9,51.2,30.17,NNW,348,1.0,1.0,94,0.00,,---,0.00,VWS V14.01,2013-08-07 09:03:00,
2013-08-07 05:05:00,53.0,51.0,30.17,NNW,348,1.0,1.0,93,0.00,,---,0.00,VWS V14.01,2013-08-07 09:05:00,
2013-08-07 05:06:00,53.0,51.0,30.17,NNW,348,1.0,1.0,93,0.00,,---,0.00,VWS V14.01,2013-08-07 09:06:00,
2013-08-07 05:07:00,53.0,51.0,30.17,NNW,348,1.0,1.0,93,0.00,,---,0.00,VWS V14.01,2013-08-07 09:07:00,
2013-08-07 05:08:00,53.0,51.0,30.17,North,349,1.0,1.0,93,0.00,,---,0.00,VWS V14.01,2013-08-07 09:08:00,
2013-08-07 05:10:00,53.0,51.0,30.17,NNW,348,0.0,1.0,93,0.00,,---,0.00,VWS V14.01,2013-08-07 09:10:00,
2013-08-07 05:11:00,53.0,51.0,30.17,North,349,0.0,1.0,93,0.00,,---,0.00,VWS V14.01,2013-08-07 09:11:00,
2013-08-07 05:12:00,53.0,51.0,30.17,North,349,0.0,1.0,93,0.00,,---,0.00,VWS V14.01,2013-08-07 09:12:00,
2013-08-07 05:13:00,53.0,51.0,30.17,NNW,348,0.0,1.0,93,0.00,,---,0.00,VWS V14.01,2013-08-07 09:13:00,
2013-08-07 05:14:00,53.0,51.0,30.17,North,349,0.0,1.0,93,0.00,,---,0.00,VWS V14.01,2013-08-07 09:14:00,
2013-08-07 05:15:00,53.0,51.0,30.17,NNW,348,0.0,1.0,93,0.00,,---,0.00,VWS V14.01,2013-08-07 09:15:00,
2013-08-07 05:17:00,53.0,51.0,30.17,NNW,348,0.0,1.0,93,0.00,,---,0.00,VWS V14.01,2013-08-07 09:17:00,
2013-08-07 05:18:00,53.0,51.0,30.17,NNW,348,0.0,1.0,93,0.00,,---,0.00,VWS V14.01,2013-08-07 09:18:00,
2013-08-07 05:21:00,52.9,50.9,30.17,North,349,0.0,1.0,93,0.00,,---,0.00,VWS V14.01,2013-08-07 09:21:00,
2013-08-07 05:22:00,52.9,50.9,30.17,North,349,0.0,1.0,93,0.00,,---,0.00,VWS V14.01,2013-08-07 09:22:00,
2013-08-07 05:23:00,52.8,50.8,30.17,NNW,348,0.0,1.0,93,0.00,,---,0.00,VWS V14.01,2013-08-07 09:23:00,
2013-08-07 05:25:00,52.8,50.8,30.17,North,349,0.0,1.0,93,0.00,,---,0.00,VWS V14.01,2013-08-07 09:25:00,
2013-08-07 05:27:00,52.7,50.7,30.17,North,349,0.0,1.0,93,0.00,,---,0.00,VWS V14.01,2013-08-07 09:27:00,
2013-08-07 05:29:00,52.7,50.7,30.17,North,349,1.0,1.0,93,0.00,,---,0.00,VWS V14.01,2013-08-07 09:29:00,
2013-08-07 05:32:00,52.6,50.6,30.17,North,349,0.0,1.0,93,0.00,,---,0.00,VWS V14.01,2013-08-07 09:32:00,
2013-08-07 05:33:00,52.6,50.6,30.17,NNW,348,0.0,1.0,93,0.00,,---,0.00,VWS V14.01,2013-08-07 09:33:00,
2013-08-07 05:34:00,52.6,50.6,30.17,North,349,0.0,1.0,93,0.00,,---,0.00,VWS V14.01,2013-08-07 09:34:00,
2013-08-07 05:35:00,52.6,50.6,30.17,NNW,348,0.0,1.0,93,0.00,,---,0.00,VWS V14.01,2013-08-07 09:35:00,
2013-08-07 05:38:00,52.6,50.6,30.17,NNW,348,0.0,1.0,93,0.00,,---,0.00,VWS V14.01,2013-08-07 09:38:00,
2013-08-07 05:39:00,52.6,50.6,30.17,NNW,348,0.0,1.0,93,0.00,,---,0.00,VWS V14.01,2013-08-07 09:39:00,
2013-08-07 05:40:00,52.6,50.6,30.17,NNW,348,0.0,1.0,93,0.00,,---,0.00,VWS V14.01,2013-08-07 09:40:00,
2013-08-07 05:43:00,52.6,50.6,30.17,NNW,348,1.0,1.0,93,0.00,,---,0.00,VWS V14.01,2013-08-07 09:43:00,
2013-08-07 05:44:00,52.6,50.6,30.17,North,349,1.0,1.0,93,0.00,,---,0.00,VWS V14.01,2013-08-07 09:44:00,
2013-08-07 05:45:00,52.6,50.6,30.17,NNW,346,1.0,1.0,93,0.00,,---,0.00,VWS V14.01,2013-08-07 09:45:00,
2013-08-07 05:46:00,52.6,50.6,30.17,NNW,345,1.0,1.0,93,0.00,,---,0.00,VWS V14.01,2013-08-07 09:46:00,
2013-08-07 05:49:00,52.6,50.6,30.17,NNW,345,1.0,1.0,93,0.00,,---,0.00,VWS V14.01,2013-08-07 09:49:00,
2013-08-07 05:50:00,52.7,50.7,30.17,NNW,345,1.0,1.0,93,0.00,,---,0.00,VWS V14.01,2013-08-07 09:50:00,
2013-08-07 05:51:00,52.7,50.7,30.17,NNW,345,0.0,1.0,93,0.00,,---,0.00,VWS V14.01,2013-08-07 09:51:00,
2013-08-07 05:54:00,52.9,51.2,30.17,NNW,345,0.0,1.0,94,0.00,,---,0.00,VWS V14.01,2013-08-07 09:54:00,
2013-08-07 05:55:00,52.9,51.2,30.17,NNW,345,0.0,1.0,94,0.00,,---,0.00,VWS V14.01,2013-08-07 09:55:00,
2013-08-07 05:56:00,52.9,51.2,30.17,NNW,345,0.0,1.0,94,0.00,,---,0.00,VWS V14.01,2013-08-07 09:56:00,
2013-08-07 05:57:00,53.0,51.3,30.17,NNW,345,0.0,1.0,94,0.00,,---,0.00,VWS V14.01,2013-08-07 09:57:00,
2013-08-07 05:58:00,53.1,51.4,30.17,NNW,345,0.0,0.0,94,0.00,,---,0.00,VWS V14.01,2013-08-07 09:58:00,
2013-08-07 06:00:00,53.2,51.5,30.17,NNW,345,0.0,0.0,94,0.00,,---,0.00,VWS V14.01,2013-08-07 10:00:00,
2013-08-07 06:01:00,53.3,51.6,30.17,NNW,345,0.0,0.0,94,0.00,,---,0.00,VWS V14.01,2013-08-07 10:01:00,
2013-08-07 06:03:00,53.4,51.7,30.17,NNW,345,0.0,0.0,94,0.00,,---,0.00,VWS V14.01,2013-08-07 10:03:00,
2013-08-07 06:04:00,53.4,51.7,30.17,NNW,346,0.0,0.0,94,0.00,,---,0.00,VWS V14.01,2013-08-07 10:04:00,
2013-08-07 06:05:00,53.4,51.4,30.17,NNW,345,0.0,0.0,93,0.00,,---,0.00,VWS V14.01,2013-08-07 10:05:00,
2013-08-07 06:06:00,53.4,51.4,30.17,NNW,345,0.0,0.0,93,0.00,,---,0.00,VWS V14.01,2013-08-07 10:06:00,
2013-08-07 06:07:00,53.4,51.4,30.17,NNW,345,0.0,0.0,93,0.00,,---,0.00,VWS V14.01,2013-08-07 10:07:00,
2013-08-07 06:09:00,53.4,51.4,30.17,NNW,345,0.0,0.0,93,0.00,,---,0.00,VWS V14.01,2013-08-07 10:09:00,
2013-08-07 06:11:00,53.4,51.7,30.17,NNW,345,0.0,0.0,94,0.00,,---,0.00,VWS V14.01,2013-08-07 10:11:00,
2013-08-07 06:12:00,53.5,51.8,30.17,NNW,346,0.0,0.0,94,0.00,,---,0.00,VWS V14.01,2013-08-07 10:12:00,
2013-08-07 06:15:00,53.5,51.5,30.17,NNW,345,0.0,0.0,93,0.00,,---,0.00,VWS V14.01,2013-08-07 10:15:00,
2013-08-07 06:16:00,53.4,51.4,30.17,NNW,345,0.0,0.0,93,0.00,,---,0.00,VWS V14.01,2013-08-07 10:16:00,
2013-08-07 06:17:00,53.5,51.5,30.17,NNW,346,0.0,0.0,93,0.00,,---,0.00,VWS V14.01,2013-08-07 10:17:00,
2013-08-07 06:18:00,53.4,51.4,30.17,NNW,345,0.0,0.0,93,0.00,,---,0.00,VWS V14.01,2013-08-07 10:18:00,
2013-08-07 06:19:00,53.5,51.5,30.17,NNW,345,0.0,0.0,93,0.00,,---,0.00,VWS V14.01,2013-08-07 10:19:00,
2013-08-07 06:21:00,53.5,51.8,30.17,NNW,345,0.0,0.0,94,0.00,,---,0.00,VWS V14.01,2013-08-07 10:21:00,
2013-08-07 06:22:00,53.5,51.5,30.17,NNW,345,0.0,0.0,93,0.00,,---,0.00,VWS V14.01,2013-08-07 10:22:00,
2013-08-07 06:23:00,53.5,51.5,30.17,NNW,345,0.0,0.0,93,0.00,,---,0.00,VWS V14.01,2013-08-07 10:23:00,
2013-08-07 06:24:00,53.5,51.5,30.17,NNW,345,0.0,0.0,93,0.00,,---,0.00,VWS V14.01,2013-08-07 10:24:00,
2013-08-07 06:26:00,53.6,51.6,30.17,NNW,345,0.0,0.0,93,0.00,,---,0.00,VWS V14.01,2013-08-07 10:26:00,
2013-08-07 06:28:00,53.7,52.0,30.17,NNW,346,0.0,0.0,94,0.00,,---,0.00,VWS V14.01,2013-08-07 10:28:00,
2013-08-07 06:29:00,53.7,52.0,30.17,NNW,345,0.0,0.0,94,0.00,,---,0.00,VWS V14.01,2013-08-07 10:29:00,
2013-08-07 06:30:00,53.7,51.7,30.17,NNW,345,0.0,0.0,93,0.00,,---,0.00,VWS V14.01,2013-08-07 10:30:00,
2013-08-07 06:33:00,53.9,51.9,30.17,NNW,345,0.0,0.0,93,0.00,,---,0.00,VWS V14.01,2013-08-07 10:33:00,
2013-08-07 06:34:00,53.9,51.9,30.17,NNW,345,0.0,0.0,93,0.00,,---,0.00,VWS V14.01,2013-08-07 10:34:00,
2013-08-07 06:35:00,53.9,51.9,30.17,NNW,345,0.0,0.0,93,0.00,,---,0.00,VWS V14.01,2013-08-07 10:35:00,
2013-08-07 06:38:00,54.1,52.4,30.17,NNW,345,0.0,0.0,94,0.00,,---,0.00,VWS V14.01,2013-08-07 10:38:00,
2013-08-07 06:40:00,54.3,52.6,30.17,NNW,345,0.0,0.0,94,0.00,,---,0.00,VWS V14.01,2013-08-07 10:40:00,
2013-08-07 06:41:00,54.4,52.7,30.17,NNW,347,0.0,0.0,94,0.00,,---,0.00,VWS V14.01,2013-08-07 10:41:00,
2013-08-07 06:43:00,54.5,52.5,30.17,North,350,0.0,0.0,93,0.00,,---,0.00,VWS V14.01,2013-08-07 10:43:00,
2013-08-07 06:46:00,54.7,52.7,30.17,North,352,0.0,0.0,93,0.00,,---,0.00,VWS V14.01,2013-08-07 10:46:00,
2013-08-07 06:47:00,54.7,52.7,30.17,North,353,0.0,0.0,93,0.00,,---,0.00,VWS V14.01,2013-08-07 10:47:00,
2013-08-07 06:49:00,54.9,52.9,30.17,North,353,0.0,0.0,93,0.00,,---,0.00,VWS V14.01,2013-08-07 10:49:00,
2013-08-07 06:51:00,55.0,53.0,30.17,North,354,1.0,1.0,93,0.00,,---,0.00,VWS V14.01,2013-08-07 10:51:00,
2013-08-07 06:52:00,55.1,53.1,30.17,North,353,1.0,1.0,93,0.00,,---,0.00,VWS V14.01,2013-08-07 10:52:00,
2013-08-07 06:53:00,55.2,53.2,30.17,North,354,1.0,2.0,93,0.00,,---,0.00,VWS V14.01,2013-08-07 10:53:00,
2013-08-07 06:55:00,55.3,53.3,30.17,North,354,2.0,2.0,93,0.00,,---,0.00,VWS V14.01,2013-08-07 10:55:00,
2013-08-07 06:57:00,55.7,53.7,30.17,North,349,1.0,2.0,93,0.00,,---,0.00,VWS V14.01,2013-08-07 10:57:00,
2013-08-07 06:58:00,55.8,53.5,30.17,North,355,1.0,2.0,92,0.00,,---,0.00,VWS V14.01,2013-08-07 10:58:00,
2013-08-07 06:59:00,55.8,53.5,30.17,North,356,1.0,2.0,92,0.00,,---,0.00,VWS V14.01,2013-08-07 10:59:00,
2013-08-07 07:00:00,56.0,53.7,30.17,North,353,2.0,2.0,92,0.00,,---,0.00,VWS V14.01,2013-08-07 11:00:00,
2013-08-07 07:04:00,56.6,54.3,30.17,North,349,1.0,2.0,92,0.00,,---,0.00,VWS V14.01,2013-08-07 11:04:00,
2013-08-07 07:05:00,56.6,54.3,30.17,North,349,1.0,2.0,92,0.00,,---,0.00,VWS V14.01,2013-08-07 11:05:00,
2013-08-07 07:06:00,56.7,54.4,30.17,North,353,0.0,2.0,92,0.00,,---,0.00,VWS V14.01,2013-08-07 11:06:00,
2013-08-07 07:10:00,57.0,54.4,30.17,North,352,0.0,2.0,91,0.00,,---,0.00,VWS V14.01,2013-08-07 11:10:00,
2013-08-07 07:11:00,57.1,54.5,30.17,NNW,348,1.0,2.0,91,0.00,,---,0.00,VWS V14.01,2013-08-07 11:11:00,
2013-08-07 07:15:00,57.5,54.9,30.17,North,355,1.0,3.0,91,0.00,,---,0.00,VWS V14.01,2013-08-07 11:15:00,
2013-08-07 07:16:00,57.6,55.0,30.17,North,354,0.0,3.0,91,0.00,,---,0.00,VWS V14.01,2013-08-07 11:16:00,
2013-08-07 07:17:00,57.6,55.0,30.17,North,354,0.0,3.0,91,0.00,,---,0.00,VWS V14.01,2013-08-07 11:17:00,
2013-08-07 07:21:00,58.0,55.4,30.17,North,352,1.0,3.0,91,0.00,,---,0.00,VWS V14.01,2013-08-07 11:21:00,
2013-08-07 07:23:00,58.1,55.5,30.17,North,356,2.0,3.0,91,0.00,,---,0.00,VWS V14.01,2013-08-07 11:23:00,
2013-08-07 07:27:00,58.5,55.9,30.17,NNW,340,2.0,3.0,91,0.00,,---,0.00,VWS V14.01,2013-08-07 11:27:00,
2013-08-07 07:28:00,58.6,55.7,30.17,NNW,340,1.0,3.0,90,0.00,,---,0.00,VWS V14.01,2013-08-07 11:28:00,
2013-08-07 07:32:00,58.9,55.7,30.17,North,359,2.0,2.0,89,0.00,,---,0.00,VWS V14.01,2013-08-07 11:32:00,
2013-08-07 07:33:00,59.1,55.9,30.17,North,353,0.0,2.0,89,0.00,,---,0.00,VWS V14.01,2013-08-07 11:33:00,
2013-08-07 07:34:00,59.1,55.9,30.17,North,353,0.0,2.0,89,0.00,,---,0.00,VWS V14.01,2013-08-07 11:34:00,
2013-08-07 07:37:00,59.4,55.8,30.17,NNW,340,1.0,2.0,88,0.00,,---,0.00,VWS V14.01,2013-08-07 11:37:00,
2013-08-07 07:38:00,59.5,56.0,30.17,North,352,2.0,2.0,88,0.00,,---,0.00,VWS V14.01,2013-08-07 11:38:00,
2013-08-07 07:39:00,59.5,56.0,30.17,North,353,1.0,3.0,88,0.00,,---,0.00,VWS V14.01,2013-08-07 11:39:00,
2013-08-07 07:40:00,59.6,56.0,30.17,NNW,343,1.0,3.0,88,0.00,,---,0.00,VWS V14.01,2013-08-07 11:40:00,
2013-08-07 07:41:00,59.7,56.2,30.17,North,355,1.0,3.0,88,0.00,,---,0.00,VWS V14.01,2013-08-07 11:41:00,
2013-08-07 07:42:00,59.9,56.3,30.17,NNW,343,1.0,3.0,88,0.00,,---,0.00,VWS V14.01,2013-08-07 11:42:00,
2013-08-07 07:44:00,60.0,56.1,30.17,North,354,2.0,3.0,87,0.00,,---,0.00,VWS V14.01,2013-08-07 11:44:00,
2013-08-07 07:45:00,60.1,56.2,30.17,North,8,0.0,3.0,87,0.00,,---,0.00,VWS V14.01,2013-08-07 11:45:00,
2013-08-07 07:46:00,60.2,56.3,30.17,NNW,336,0.0,3.0,87,0.00,,---,0.00,VWS V14.01,2013-08-07 11:46:00,
2013-08-07 07:48:00,60.5,56.6,30.17,NNW,336,1.0,3.0,87,0.00,,---,0.00,VWS V14.01,2013-08-07 11:48:00,
2013-08-07 07:49:00,60.7,56.8,30.17,NNW,345,2.0,3.0,87,0.00,,---,0.00,VWS V14.01,2013-08-07 11:49:00,
2013-08-07 07:50:00,60.8,56.9,30.17,NNW,345,0.0,3.0,87,0.00,,---,0.00,VWS V14.01,2013-08-07 11:50:00,
2013-08-07 07:51:00,60.9,56.7,30.17,NNE,13,2.0,3.0,86,0.00,,---,0.00,VWS V14.01,2013-08-07 11:51:00,
2013-08-07 07:54:00,61.1,56.6,30.17,NNW,345,1.0,3.0,85,0.00,,---,0.00,VWS V14.01,2013-08-07 11:54:00,
2013-08-07 07:55:00,61.2,56.7,30.18,North,8,1.0,3.0,85,0.00,,---,0.00,VWS V14.01,2013-08-07 11:55:00,
2013-08-07 07:57:00,61.4,56.5,30.18,North,10,1.0,3.0,84,0.00,,---,0.00,VWS V14.01,2013-08-07 11:57:00,
2013-08-07 07:59:00,61.6,56.7,30.18,NNW,335,0.0,2.0,84,0.00,,---,0.00,VWS V14.01,2013-08-07 11:59:00,
2013-08-07 08:00:00,61.6,56.7,30.18,NNW,335,0.0,2.0,84,0.00,,---,0.00,VWS V14.01,2013-08-07 12:00:00,
2013-08-07 08:01:00,61.7,56.8,30.18,NNW,335,0.0,2.0,84,0.00,,---,0.00,VWS V14.01,2013-08-07 12:01:00,
2013-08-07 08:02:00,61.8,56.9,30.18,NNW,335,0.0,2.0,84,0.00,,---,0.00,VWS V14.01,2013-08-07 12:02:00,
2013-08-07 08:05:00,62.1,57.2,30.18,NNW,334,0.0,2.0,84,0.00,,---,0.00,VWS V14.01,2013-08-07 12:05:00,
2013-08-07 08:06:00,62.3,57.1,30.18,NNW,334,0.0,2.0,83,0.00,,---,0.00,VWS V14.01,2013-08-07 12:06:00,
2013-08-07 08:07:00,62.3,57.1,30.18,NNW,335,0.0,2.0,83,0.00,,---,0.00,VWS V14.01,2013-08-07 12:07:00,
2013-08-07 08:08:00,62.5,57.3,30.18,NNW,335,0.0,2.0,83,0.00,,---,0.00,VWS V14.01,2013-08-07 12:08:00,
2013-08-07 08:10:00,62.6,57.4,30.18,NNW,335,1.0,2.0,83,0.00,,---,0.00,VWS V14.01,2013-08-07 12:10:00,
2013-08-07 08:12:00,62.8,57.6,30.18,NNW,339,0.0,2.0,83,0.00,,---,0.00,VWS V14.01,2013-08-07 12:12:00,
2013-08-07 08:13:00,62.9,57.7,30.18,NNW,345,0.0,2.0,83,0.00,,---,0.00,VWS V14.01,2013-08-07 12:13:00,
2013-08-07 08:14:00,62.9,57.7,30.18,NNW,345,0.0,2.0,83,0.00,,---,0.00,VWS V14.01,2013-08-07 12:14:00,
2013-08-07 08:16:00,63.1,57.9,30.18,NNW,345,0.0,2.0,83,0.00,,---,0.00,VWS V14.01,2013-08-07 12:16:00,
2013-08-07 08:17:00,63.2,58.0,30.18,NNW,345,0.0,2.0,83,0.00,,---,0.00,VWS V14.01,2013-08-07 12:17:00,
2013-08-07 08:18:00,63.3,58.1,30.18,NNW,345,0.0,2.0,83,0.00,,---,0.00,VWS V14.01,2013-08-07 12:18:00,
2013-08-07 08:19:00,63.5,58.2,30.18,ENE,69,0.0,2.0,83,0.00,,---,0.00,VWS V14.01,2013-08-07 12:19:00,
2013-08-07 08:20:00,63.7,58.5,30.18,ENE,70,0.0,2.0,83,0.00,,---,0.00,VWS V14.01,2013-08-07 12:20:00,
2013-08-07 08:21:00,63.9,58.3,30.18,ESE,121,1.0,2.0,82,0.00,,---,0.00,VWS V14.01,2013-08-07 12:21:00,
2013-08-07 08:23:00,64.0,58.1,30.18,ESE,123,0.0,2.0,81,0.00,,---,0.00,VWS V14.01,2013-08-07 12:23:00,
2013-08-07 08:24:00,64.0,58.1,30.18,SE,134,1.0,2.0,81,0.00,,---,0.00,VWS V14.01,2013-08-07 12:24:00,
2013-08-07 08:25:00,64.0,58.1,30.18,SE,134,1.0,2.0,81,0.00,,---,0.00,VWS V14.01,2013-08-07 12:25:00,
2013-08-07 08:27:00,64.1,58.2,30.18,SSE,153,1.0,2.0,81,0.00,,---,0.00,VWS V14.01,2013-08-07 12:27:00,
2013-08-07 08:28:00,64.2,58.3,30.18,ESE,113,1.0,1.0,81,0.00,,---,0.00,VWS V14.01,2013-08-07 12:28:00,
2013-08-07 08:29:00,64.2,58.3,30.18,ESE,113,1.0,1.0,81,0.00,,---,0.00,VWS V14.01,2013-08-07 12:29:00,
2013-08-07 08:31:00,64.2,58.3,30.18,ESE,120,1.0,2.0,81,0.00,,---,0.00,VWS V14.01,2013-08-07 12:31:00,
2013-08-07 08:32:00,64.3,58.3,30.18,ESE,118,1.0,2.0,81,0.00,,---,0.00,VWS V14.01,2013-08-07 12:32:00,
2013-08-07 08:34:00,64.3,58.3,30.18,South,181,1.0,2.0,81,0.00,,---,0.00,VWS V14.01,2013-08-07 12:34:00,
2013-08-07 08:36:00,64.8,58.1,30.18,SSE,147,0.0,2.0,79,0.00,,---,0.00,VWS V14.01,2013-08-07 12:36:00,
2013-08-07 08:37:00,64.9,57.9,30.18,SSE,153,0.0,2.0,78,0.00,,---,0.00,VWS V14.01,2013-08-07 12:37:00,
2013-08-07 08:40:00,65.7,57.9,30.18,SSE,163,0.0,2.0,76,0.00,,---,0.00,VWS V14.01,2013-08-07 12:40:00,
2013-08-07 08:42:00,66.5,58.3,30.18,South,176,0.0,2.0,75,0.00,,---,0.00,VWS V14.01,2013-08-07 12:42:00,
2013-08-07 08:43:00,67.0,58.1,30.18,SSE,166,0.0,2.0,73,0.00,,---,0.00,VWS V14.01,2013-08-07 12:43:00,
2013-08-07 08:45:00,67.4,58.5,30.18,SSE,152,0.0,2.0,73,0.00,,---,0.00,VWS V14.01,2013-08-07 12:45:00,
2013-08-07 08:46:00,67.6,58.3,30.18,SSE,151,0.0,2.0,72,0.00,,---,0.00,VWS V14.01,2013-08-07 12:46:00,
2013-08-07 08:48:00,67.7,57.6,30.18,SSE,147,0.0,2.0,70,0.00,,---,0.00,VWS V14.01,2013-08-07 12:48:00,
2013-08-07 08:51:00,67.9,58.5,30.17,SSE,148,0.0,2.0,72,0.00,,---,0.00,VWS V14.01,2013-08-07 12:51:00,
2013-08-07 08:52:00,67.9,58.5,30.17,SSE,149,0.0,2.0,72,0.00,,---,0.00,VWS V14.01,2013-08-07 12:52:00,
2013-08-07 08:54:00,68.2,58.8,30.17,SSE,149,0.0,2.0,72,0.00,,---,0.00,VWS V14.01,2013-08-07 12:54:00,
2013-08-07 08:56:00,68.7,59.3,30.17,ESE,123,0.0,2.0,72,0.00,,---,0.00,VWS V14.01,2013-08-07 12:56:00,
2013-08-07 08:57:00,68.9,59.5,30.17,ESE,123,0.0,2.0,72,0.00,,---,0.00,VWS V14.01,2013-08-07 12:57:00,
2013-08-07 08:59:00,69.5,59.7,30.17,SE,134,0.0,0.0,71,0.00,,---,0.00,VWS V14.01,2013-08-07 12:59:00,
2013-08-07 09:01:00,70.0,59.8,30.17,SE,134,0.0,0.0,70,0.00,,---,0.00,VWS V14.01,2013-08-07 13:01:00,
2013-08-07 09:02:00,70.0,59.8,30.17,SE,134,0.0,0.0,70,0.00,,---,0.00,VWS V14.01,2013-08-07 13:02:00,
2013-08-07 09:04:00,70.5,59.4,30.17,SE,129,0.0,0.0,68,0.00,,---,0.00,VWS V14.01,2013-08-07 13:04:00,
2013-08-07 09:05:00,70.7,59.6,30.17,SE,129,0.0,0.0,68,0.00,,---,0.00,VWS V14.01,2013-08-07 13:05:00,
2013-08-07 09:07:00,71.1,60.0,30.17,SE,128,0.0,0.0,68,0.00,,---,0.00,VWS V14.01,2013-08-07 13:07:00,
2013-08-07 09:08:00,71.3,59.8,30.17,SE,130,0.0,0.0,67,0.00,,---,0.00,VWS V14.01,2013-08-07 13:08:00,
2013-08-07 09:10:00,71.7,59.8,30.17,SE,139,0.0,0.0,66,0.00,,---,0.00,VWS V14.01,2013-08-07 13:10:00,
2013-08-07 09:12:00,72.2,59.8,30.17,SE,141,0.0,0.0,65,0.00,,---,0.00,VWS V14.01,2013-08-07 13:12:00,
2013-08-07 09:13:00,72.2,59.4,30.17,SE,141,0.0,0.0,64,0.00,,---,0.00,VWS V14.01,2013-08-07 13:13:00,
2013-08-07 09:15:00,72.5,59.6,30.17,SW,233,0.0,0.0,64,0.00,,---,0.00,VWS V14.01,2013-08-07 13:15:00,
2013-08-07 09:16:00,72.2,58.9,30.17,SW,232,0.0,0.0,63,0.00,,---,0.00,VWS V14.01,2013-08-07 13:16:00,
2013-08-07 09:18:00,71.8,59.4,30.17,SW,221,1.0,1.0,65,0.00,,---,0.00,VWS V14.01,2013-08-07 13:18:00,
2013-08-07 09:19:00,71.6,59.2,30.17,SW,219,0.0,1.0,65,0.00,,---,0.00,VWS V14.01,2013-08-07 13:19:00,
2013-08-07 09:21:00,70.7,59.2,30.17,SW,233,0.0,2.0,67,0.00,,---,0.00,VWS V14.01,2013-08-07 13:21:00,
2013-08-07 09:22:00,70.5,59.0,30.17,WSW,237,0.0,2.0,67,0.00,,---,0.00,VWS V14.01,2013-08-07 13:22:00,
2013-08-07 09:24:00,70.0,59.4,30.17,SW,214,0.0,2.0,69,0.00,,---,0.00,VWS V14.01,2013-08-07 13:24:00,
2013-08-07 09:27:00,70.0,59.8,30.17,SW,217,1.0,2.0,70,0.00,,---,0.00,VWS V14.01,2013-08-07 13:27:00,
2013-08-07 09:28:00,70.1,59.5,30.17,SW,218,0.0,2.0,69,0.00,,---,0.00,VWS V14.01,2013-08-07 13:28:00,
2013-08-07 09:29:00,70.1,59.9,30.17,SW,225,0.0,0.0,70,0.00,,---,0.00,VWS V14.01,2013-08-07 13:29:00,
2013-08-07 09:30:00,70.2,59.6,30.17,SW,225,0.0,0.0,69,0.00,,---,0.00,VWS V14.01,2013-08-07 13:30:00,
2013-08-07 09:32:00,70.7,60.0,30.17,SSE,164,0.0,0.0,69,0.00,,---,0.00,VWS V14.01,2013-08-07 13:32:00,
2013-08-07 09:33:00,70.9,60.2,30.17,South,174,0.0,0.0,69,0.00,,---,0.00,VWS V14.01,2013-08-07 13:33:00,
2013-08-07 09:34:00,71.3,60.6,30.17,South,173,0.0,0.0,69,0.00,,---,0.00,VWS V14.01,2013-08-07 13:34:00,
2013-08-07 09:36:00,72.0,60.5,30.17,South,173,0.0,0.0,67,0.00,,---,0.00,VWS V14.01,2013-08-07 13:36:00,
2013-08-07 09:38:00,72.9,60.5,30.17,SSW,210,0.0,0.0,65,0.00,,---,0.00,VWS V14.01,2013-08-07 13:38:00,
2013-08-07 09:39:00,73.2,60.7,30.17,SSW,210,0.0,0.0,65,0.00,,---,0.00,VWS V14.01,2013-08-07 13:39:00,
2013-08-07 09:40:00,73.6,61.1,30.17,SSW,210,0.0,1.0,65,0.00,,---,0.00,VWS V14.01,2013-08-07 13:40:00,
2013-08-07 09:41:00,74.0,60.6,30.17,South,169,0.0,1.0,63,0.00,,---,0.00,VWS V14.01,2013-08-07 13:41:00,
2013-08-07 09:44:00,74.2,60.4,30.17,SW,225,0.0,1.0,62,0.00,,---,0.00,VWS V14.01,2013-08-07 13:44:00,
2013-08-07 09:45:00,74.2,60.8,30.17,SW,221,0.0,1.0,63,0.00,,---,0.00,VWS V14.01,2013-08-07 13:45:00,
2013-08-07 09:46:00,74.4,61.0,30.17,SW,224,0.0,1.0,63,0.00,,---,0.00,VWS V14.01,2013-08-07 13:46:00,
2013-08-07 09:50:00,75.1,61.2,30.17,SSW,197,0.0,1.0,62,0.00,,---,0.00,VWS V14.01,2013-08-07 13:50:00,
2013-08-07 09:52:00,75.4,61.0,30.17,SSE,157,0.0,1.0,61,0.00,,---,0.00,VWS V14.01,2013-08-07 13:52:00,
2013-08-07 09:53:00,75.5,61.6,30.17,SSE,157,0.0,1.0,62,0.00,,---,0.00,VWS V14.01,2013-08-07 13:53:00,
2013-08-07 09:55:00,75.8,61.9,30.17,South,179,0.0,1.0,62,0.00,,---,0.00,VWS V14.01,2013-08-07 13:55:00,
2013-08-07 09:56:00,75.9,61.5,30.17,South,179,0.0,1.0,61,0.00,,---,0.00,VWS V14.01,2013-08-07 13:56:00,
2013-08-07 09:58:00,76.2,61.8,30.17,SSW,208,0.0,0.0,61,0.00,,---,0.00,VWS V14.01,2013-08-07 13:58:00,
2013-08-07 10:00:00,76.4,61.5,30.17,SSW,208,0.0,0.0,60,0.00,,---,0.00,VWS V14.01,2013-08-07 14:00:00,
2013-08-07 10:01:00,76.6,61.7,30.17,SSW,210,0.0,1.0,60,0.00,,---,0.00,VWS V14.01,2013-08-07 14:01:00,
2013-08-07 10:03:00,76.6,61.7,30.17,SSE,150,1.0,1.0,60,0.00,,---,0.00,VWS V14.01,2013-08-07 14:03:00,
2013-08-07 10:06:00,75.7,61.3,30.17,SSE,160,0.0,1.0,61,0.00,,---,0.00,VWS V14.01,2013-08-07 14:06:00,
2013-08-07 10:07:00,75.6,61.7,30.17,South,170,0.0,1.0,62,0.00,,---,0.00,VWS V14.01,2013-08-07 14:07:00,
2013-08-07 10:08:00,75.4,61.5,30.16,South,169,0.0,1.0,62,0.00,,---,0.00,VWS V14.01,2013-08-07 14:08:00,
2013-08-07 10:09:00,75.5,62.0,30.17,SSE,153,0.0,1.0,63,0.00,,---,0.00,VWS V14.01,2013-08-07 14:09:00,
2013-08-07 10:12:00,76.1,62.2,30.16,SE,146,0.0,1.0,62,0.00,,---,0.00,VWS V14.01,2013-08-07 14:12:00,
2013-08-07 10:13:00,76.1,62.2,30.16,SSE,148,0.0,1.0,62,0.00,,---,0.00,VWS V14.01,2013-08-07 14:13:00,
2013-08-07 10:14:00,76.1,61.7,30.16,SSE,149,1.0,2.0,61,0.00,,---,0.00,VWS V14.01,2013-08-07 14:14:00,
2013-08-07 10:16:00,75.8,61.9,30.16,SSE,149,0.0,2.0,62,0.00,,---,0.00,VWS V14.01,2013-08-07 14:16:00,
2013-08-07 10:18:00,75.5,61.6,30.17,SSE,148,1.0,2.0,62,0.00,,---,0.00,VWS V14.01,2013-08-07 14:18:00,
2013-08-07 10:19:00,75.3,61.4,30.16,SSE,149,0.0,2.0,62,0.00,,---,0.00,VWS V14.01,2013-08-07 14:19:00,
2013-08-07 10:20:00,75.1,61.7,30.17,SSE,149,0.0,2.0,63,0.00,,---,0.00,VWS V14.01,2013-08-07 14:20:00,
2013-08-07 10:22:00,75.3,62.3,30.16,SSE,157,2.0,2.0,64,0.00,,---,0.00,VWS V14.01,2013-08-07 14:22:00,
2013-08-07 10:23:00,75.2,61.8,30.16,SE,127,1.0,2.0,63,0.00,,---,0.00,VWS V14.01,2013-08-07 14:23:00,
2013-08-07 10:24:00,75.0,61.6,30.16,East,98,0.0,2.0,63,0.00,,---,0.00,VWS V14.01,2013-08-07 14:24:00,
2013-08-07 10:25:00,75.1,62.5,30.16,SSW,205,0.0,2.0,65,0.00,,---,0.00,VWS V14.01,2013-08-07 14:25:00,
2013-08-07 10:27:00,75.7,62.7,30.16,SW,219,0.0,2.0,64,0.00,,---,0.00,VWS V14.01,2013-08-07 14:27:00,
2013-08-07 10:28:00,76.1,63.0,30.16,NE,39,0.0,1.0,64,0.00,,---,0.00,VWS V14.01,2013-08-07 14:28:00,
2013-08-07 10:29:00,76.5,62.5,30.16,SE,139,2.0,2.0,62,0.00,,---,0.00,VWS V14.01,2013-08-07 14:29:00,
2013-08-07 10:30:00,76.8,62.8,30.16,ESE,121,0.0,2.0,62,0.00,,---,0.00,VWS V14.01,2013-08-07 14:30:00,
2013-08-07 10:32:00,77.1,62.6,30.16,ESE,120,0.0,2.0,61,0.00,,---,0.00,VWS V14.01,2013-08-07 14:32:00,
2013-08-07 10:33:00,77.2,62.2,30.16,ESE,120,0.0,2.0,60,0.00,,---,0.00,VWS V14.01,2013-08-07 14:33:00,
2013-08-07 10:35:00,77.3,62.8,30.16,ESE,118,0.0,2.0,61,0.00,,---,0.00,VWS V14.01,2013-08-07 14:35:00,
2013-08-07 10:36:00,77.4,62.4,30.16,ESE,118,0.0,2.0,60,0.00,,---,0.00,VWS V14.01,2013-08-07 14:36:00,
2013-08-07 10:37:00,77.0,61.6,30.16,East,98,1.0,3.0,59,0.00,,---,0.00,VWS V14.01,2013-08-07 14:37:00,
2013-08-07 10:38:00,76.5,61.6,30.16,East,89,0.0,3.0,60,0.00,,---,0.00,VWS V14.01,2013-08-07 14:38:00,
2013-08-07 10:41:00,76.1,61.7,30.16,SE,145,2.0,3.0,61,0.00,,---,0.00,VWS V14.01,2013-08-07 14:41:00,
2013-08-07 10:44:00,75.9,61.5,30.16,ESE,115,0.0,3.0,61,0.00,,---,0.00,VWS V14.01,2013-08-07 14:44:00,
2013-08-07 10:46:00,76.2,61.8,30.16,WSW,255,0.0,3.0,61,0.00,,---,0.00,VWS V14.01,2013-08-07 14:46:00,
2013-08-07 10:47:00,76.5,61.6,30.16,SSE,148,1.0,3.0,60,0.00,,---,0.00,VWS V14.01,2013-08-07 14:47:00,
2013-08-07 10:49:00,76.2,60.8,30.16,East,88,2.0,3.0,59,0.00,,---,0.00,VWS V14.01,2013-08-07 14:49:00,
2013-08-07 10:50:00,75.8,60.0,30.16,SE,125,0.0,3.0,58,0.00,,---,0.00,VWS V14.01,2013-08-07 14:50:00,
2013-08-07 10:52:00,75.3,60.9,30.16,SE,139,0.0,3.0,61,0.00,,---,0.00,VWS V14.01,2013-08-07 14:52:00,
2013-08-07 10:53:00,75.4,61.0,30.16,SSE,150,1.0,3.0,61,0.00,,---,0.00,VWS V14.01,2013-08-07 14:53:00,
2013-08-07 10:54:00,75.5,61.1,30.16,SSE,150,0.0,3.0,61,0.00,,---,0.00,VWS V14.01,2013-08-07 14:54:00,
2013-08-07 10:55:00,75.7,60.4,30.16,SE,134,0.0,3.0,59,0.00,,---,0.00,VWS V14.01,2013-08-07 14:55:00,
2013-08-07 10:57:00,76.2,61.3,30.16,SSW,208,0.0,3.0,60,0.00,,---,0.00,VWS V14.01,2013-08-07 14:57:00,
2013-08-07 10:58:00,77.0,61.6,30.16,ESE,122,0.0,0.0,59,0.00,,---,0.00,VWS V14.01,2013-08-07 14:58:00,
2013-08-07 11:00:00,77.6,61.2,30.16,SE,136,6.0,7.0,57,0.00,,---,0.00,VWS V14.01,2013-08-07 15:00:00,
2013-08-07 11:02:00,77.2,59.8,30.16,NNW,331,1.0,7.0,55,0.00,,---,0.00,VWS V14.01,2013-08-07 15:02:00,
2013-08-07 11:03:00,77.1,60.7,30.16,WSW,238,1.0,7.0,57,0.00,,---,0.00,VWS V14.01,2013-08-07 15:03:00,
2013-08-07 11:05:00,76.5,60.2,30.16,SSW,198,2.0,7.0,57,0.00,,---,0.00,VWS V14.01,2013-08-07 15:05:00,
2013-08-07 11:07:00,76.4,61.5,30.16,SSE,166,0.0,7.0,60,0.00,,---,0.00,VWS V14.01,2013-08-07 15:07:00,
2013-08-07 11:08:00,76.6,60.2,30.16,SSW,212,2.0,7.0,57,0.00,,---,0.00,VWS V14.01,2013-08-07 15:08:00,
2013-08-07 11:09:00,76.7,60.3,30.16,SW,225,0.0,7.0,57,0.00,,---,0.00,VWS V14.01,2013-08-07 15:09:00,
2013-08-07 11:11:00,76.8,60.9,30.16,South,181,0.0,7.0,58,0.00,,---,0.00,VWS V14.01,2013-08-07 15:11:00,
2013-08-07 11:13:00,77.1,60.2,30.16,East,82,1.0,7.0,56,0.00,,---,0.00,VWS V14.01,2013-08-07 15:13:00,
2013-08-07 11:14:00,77.4,61.0,30.16,SSE,147,2.0,7.0,57,0.00,,---,0.00,VWS V14.01,2013-08-07 15:14:00,
2013-08-07 11:15:00,77.5,61.6,30.16,SE,142,0.0,7.0,58,0.00,,---,0.00,VWS V14.01,2013-08-07 15:15:00,
2013-08-07 11:16:00,77.7,61.3,30.16,SSW,207,1.0,7.0,57,0.00,,---,0.00,VWS V14.01,2013-08-07 15:16:00,
2013-08-07 11:18:00,77.6,61.2,30.16,SSE,159,1.0,7.0,57,0.00,,---,0.00,VWS V14.01,2013-08-07 15:18:00,
2013-08-07 11:20:00,77.5,60.1,30.16,SW,235,3.0,7.0,55,0.00,,---,0.00,VWS V14.01,2013-08-07 15:20:00,
2013-08-07 11:21:00,77.3,59.9,30.16,South,191,0.0,7.0,55,0.00,,---,0.00,VWS V14.01,2013-08-07 15:21:00,
2013-08-07 11:23:00,76.6,61.7,30.16,SSW,203,1.0,7.0,60,0.00,,---,0.00,VWS V14.01,2013-08-07 15:23:00,
2013-08-07 11:26:00,76.3,60.5,30.16,SW,219,4.0,8.0,58,0.00,,---,0.00,VWS V14.01,2013-08-07 15:26:00,
2013-08-07 11:27:00,76.1,60.3,30.16,SW,217,4.0,8.0,58,0.00,,---,0.00,VWS V14.01,2013-08-07 15:27:00,
2013-08-07 11:29:00,75.2,60.8,30.16,SW,214,4.0,6.0,61,0.00,,---,0.00,VWS V14.01,2013-08-07 15:29:00,
2013-08-07 11:31:00,74.8,60.9,30.16,WSW,240,2.0,6.0,62,0.00,,---,0.00,VWS V14.01,2013-08-07 15:31:00,
2013-08-07 11:32:00,74.9,60.6,30.16,SSW,205,2.0,6.0,61,0.00,,---,0.00,VWS V14.01,2013-08-07 15:32:00,
2013-08-07 11:33:00,75.0,60.2,30.15,SW,232,5.0,6.0,60,0.00,,---,0.00,VWS V14.01,2013-08-07 15:33:00,
2013-08-07 11:35:00,75.3,61.4,30.16,NE,45,4.0,6.0,62,0.00,,---,0.00,VWS V14.01,2013-08-07 15:35:00,
2013-08-07 11:37:00,75.5,59.2,30.16,SW,225,2.0,6.0,57,0.00,,---,0.00,VWS V14.01,2013-08-07 15:37:00,
2013-08-07 11:38:00,75.3,59.5,30.15,WSW,250,5.0,6.0,58,0.00,,---,0.00,VWS V14.01,2013-08-07 15:38:00,
2013-08-07 11:41:00,74.6,60.3,30.15,SSW,200,1.0,7.0,61,0.00,,---,0.00,VWS V14.01,2013-08-07 15:41:00,
2013-08-07 11:42:00,74.6,61.2,30.15,South,183,2.0,7.0,63,0.00,,---,0.00,VWS V14.01,2013-08-07 15:42:00,
2013-08-07 11:43:00,74.8,60.9,30.15,SSW,201,0.0,7.0,62,0.00,,---,0.00,VWS V14.01,2013-08-07 15:43:00,
2013-08-07 11:46:00,75.5,60.2,30.15,SW,222,5.0,7.0,59,0.00,,---,0.00,VWS V14.01,2013-08-07 15:46:00,
2013-08-07 11:47:00,75.4,59.1,30.15,SW,235,4.0,8.0,57,0.00,,---,0.00,VWS V14.01,2013-08-07 15:47:00,
2013-08-07 11:48:00,75.2,58.9,30.15,SW,228,1.0,8.0,57,0.00,,---,0.00,VWS V14.01,2013-08-07 15:48:00,
2013-08-07 11:49:00,75.1,59.3,30.15,SE,142,1.0,8.0,58,0.00,,---,0.00,VWS V14.01,2013-08-07 15:49:00,
2013-08-07 11:53:00,75.4,60.1,30.15,South,174,3.0,8.0,59,0.00,,---,0.00,VWS V14.01,2013-08-07 15:53:00,
2013-08-07 11:54:00,75.4,59.1,30.15,East,98,0.0,8.0,57,0.00,,---,0.00,VWS V14.01,2013-08-07 15:54:00,
2013-08-07 11:55:00,75.4,59.1,30.15,South,183,1.0,8.0,57,0.00,,---,0.00,VWS V14.01,2013-08-07 15:55:00,
2013-08-07 11:58:00,75.4,59.1,30.15,SW,236,5.0,6.0,57,0.00,,---,0.00,VWS V14.01,2013-08-07 15:58:00,
2013-08-07 11:59:00,75.3,59.0,30.15,South,172,1.0,6.0,57,0.00,,---,0.00,VWS V14.01,2013-08-07 15:59:00,
2013-08-07 12:00:00,75.1,59.8,30.15,South,169,1.0,6.0,59,0.00,,---,0.00,VWS V14.01,2013-08-07 16:00:00,
2013-08-07 12:04:00,75.9,60.6,30.15,WSW,255,1.0,6.0,59,0.00,,---,0.00,VWS V14.01,2013-08-07 16:04:00,
2013-08-07 12:05:00,75.8,58.5,30.15,WSW,238,2.0,6.0,55,0.00,,---,0.00,VWS V14.01,2013-08-07 16:05:00,
2013-08-07 12:06:00,75.7,58.4,30.15,West,264,2.0,6.0,55,0.00,,---,0.00,VWS V14.01,2013-08-07 16:06:00,
2013-08-07 12:09:00,75.7,59.4,30.15,SSE,148,5.0,6.0,57,0.00,,---,0.00,VWS V14.01,2013-08-07 16:09:00,
2013-08-07 12:10:00,75.8,59.5,30.15,SW,235,4.0,6.0,57,0.00,,---,0.00,VWS V14.01,2013-08-07 16:10:00,
2013-08-07 12:11:00,75.7,58.4,30.15,South,172,2.0,6.0,55,0.00,,---,0.00,VWS V14.01,2013-08-07 16:11:00,
2013-08-07 12:14:00,76.4,60.1,30.15,SSW,205,2.0,6.0,57,0.00,,---,0.00,VWS V14.01,2013-08-07 16:14:00,
2013-08-07 12:15:00,76.4,60.1,30.15,SW,233,3.0,6.0,57,0.00,,---,0.00,VWS V14.01,2013-08-07 16:15:00,
2013-08-07 12:17:00,76.5,60.2,30.15,SW,236,0.0,6.0,57,0.00,,---,0.00,VWS V14.01,2013-08-07 16:17:00,
2013-08-07 12:18:00,76.6,58.7,30.15,ESE,118,1.0,6.0,54,0.00,,---,0.00,VWS V14.01,2013-08-07 16:18:00,
2013-08-07 12:20:00,77.5,60.6,30.15,East,83,2.0,6.0,56,0.00,,---,0.00,VWS V14.01,2013-08-07 16:20:00,
2013-08-07 12:22:00,78.0,61.0,30.15,SW,221,1.0,6.0,56,0.00,,---,0.00,VWS V14.01,2013-08-07 16:22:00,
2013-08-07 12:23:00,78.1,60.1,30.15,SW,224,3.0,6.0,54,0.00,,---,0.00,VWS V14.01,2013-08-07 16:23:00,
2013-08-07 12:24:00,78.2,59.7,30.15,WSW,245,0.0,6.0,53,0.00,,---,0.00,VWS V14.01,2013-08-07 16:24:00,
2013-08-07 12:26:00,78.2,60.2,30.14,SSW,198,0.0,6.0,54,0.00,,---,0.00,VWS V14.01,2013-08-07 16:26:00,
2013-08-07 12:27:00,78.3,60.3,30.14,SSW,211,1.0,6.0,54,0.00,,---,0.00,VWS V14.01,2013-08-07 16:27:00,
2013-08-07 12:28:00,78.4,60.4,30.14,SW,221,2.0,6.0,54,0.00,,---,0.00,VWS V14.01,2013-08-07 16:28:00,
2013-08-07 12:29:00,78.3,60.8,30.14,SW,217,2.0,3.0,55,0.00,,---,0.00,VWS V14.01,2013-08-07 16:29:00,
2013-08-07 12:30:00,78.3,60.8,30.14,SE,146,0.0,3.0,55,0.00,,---,0.00,VWS V14.01,2013-08-07 16:30:00,
2013-08-07 12:31:00,78.8,60.8,30.15,East,94,0.0,3.0,54,0.00,,---,0.00,VWS V14.01,2013-08-07 16:31:00,
2013-08-07 12:32:00,79.0,61.0,30.15,WSW,257,1.0,3.0,54,0.00,,---,0.00,VWS V14.01,2013-08-07 16:32:00,
2013-08-07 12:34:00,79.1,60.0,30.15,SW,222,3.0,3.0,52,0.00,,---,0.00,VWS V14.01,2013-08-07 16:34:00,
2013-08-07 12:35:00,78.4,59.3,30.14,SW,214,1.0,4.0,52,0.00,,---,0.00,VWS V14.01,2013-08-07 16:35:00,
2013-08-07 12:37:00,78.1,59.6,30.14,SW,228,2.0,4.0,53,0.00,,---,0.00,VWS V14.01,2013-08-07 16:37:00,
2013-08-07 12:38:00,78.0,60.5,30.14,SSW,208,0.0,4.0,55,0.00,,---,0.00,VWS V14.01,2013-08-07 16:38:00,
2013-08-07 12:39:00,77.7,60.3,30.15,SSW,198,2.0,5.0,55,0.00,,---,0.00,VWS V14.01,2013-08-07 16:39:00,
2013-08-07 12:40:00,77.7,59.8,30.15,West,259,1.0,5.0,54,0.00,,---,0.00,VWS V14.01,2013-08-07 16:40:00,
2013-08-07 12:41:00,77.7,59.8,30.15,WSW,245,0.0,5.0,54,0.00,,---,0.00,VWS V14.01,2013-08-07 16:41:00,
2013-08-07 12:42:00,78.3,60.3,30.15,SSE,159,1.0,5.0,54,0.00,,---,0.00,VWS V14.01,2013-08-07 16:42:00,
2013-08-07 12:43:00,78.6,60.6,30.14,SSW,194,3.0,5.0,54,0.00,,---,0.00,VWS V14.01,2013-08-07 16:43:00,
2013-08-07 12:44:00,78.8,59.2,30.15,SSE,164,1.0,5.0,51,0.00,,---,0.00,VWS V14.01,2013-08-07 16:44:00,
2013-08-07 12:46:00,78.9,59.2,30.14,SW,235,6.0,6.0,51,0.00,,---,0.00,VWS V14.01,2013-08-07 16:46:00,
2013-08-07 12:47:00,78.5,60.0,30.14,SW,229,5.0,8.0,53,0.00,,---,0.00,VWS V14.01,2013-08-07 16:47:00,
2013-08-07 12:48:00,78.1,60.6,30.14,SSW,208,1.0,8.0,55,0.00,,---,0.00,VWS V14.01,2013-08-07 16:48:00,
2013-08-07 12:50:00,78.1,59.1,30.15,South,190,1.0,8.0,52,0.00,,---,0.00,VWS V14.01,2013-08-07 16:50:00,
2013-08-07 12:51:00,78.1,59.1,30.14,WSW,242,4.0,8.0,52,0.00,,---,0.00,VWS V14.01,2013-08-07 16:51:00,
2013-08-07 12:53:00,78.1,59.6,30.14,SSE,166,1.0,8.0,53,0.00,,---,0.00,VWS V14.01,2013-08-07 16:53:00,
2013-08-07 12:54:00,78.3,60.3,30.14,SSW,210,0.0,8.0,54,0.00,,---,0.00,VWS V14.01,2013-08-07 16:54:00,
2013-08-07 12:56:00,78.5,60.5,30.14,North,360,1.0,8.0,54,0.00,,---,0.00,VWS V14.01,2013-08-07 16:56:00,
2013-08-07 12:57:00,78.7,60.7,30.14,SSW,207,1.0,8.0,54,0.00,,---,0.00,VWS V14.01,2013-08-07 16:57:00,
2013-08-07 12:59:00,78.9,60.9,30.14,SW,218,1.0,3.0,54,0.00,,---,0.00,VWS V14.01,2013-08-07 16:59:00,
2013-08-07 13:00:00,79.0,60.4,30.14,East,94,1.0,4.0,53,0.00,,---,0.00,VWS V14.01,2013-08-07 17:00:00,
2013-08-07 13:01:00,79.0,60.4,30.14,SE,129,3.0,4.0,53,0.00,,---,0.00,VWS V14.01,2013-08-07 17:01:00,
2013-08-07 13:02:00,79.0,59.9,30.14,SE,136,2.0,4.0,52,0.00,,---,0.00,VWS V14.01,2013-08-07 17:02:00,
2013-08-07 13:03:00,78.9,59.8,30.14,ESE,106,1.0,4.0,52,0.00,,---,0.00,VWS V14.01,2013-08-07 17:03:00,
2013-08-07 13:04:00,78.8,58.6,30.14,WSW,253,0.0,4.0,50,0.00,,---,0.00,VWS V14.01,2013-08-07 17:04:00,
2013-08-07 13:05:00,78.5,59.4,30.14,East,92,1.0,4.0,52,0.00,,---,0.00,VWS V14.01,2013-08-07 17:05:00,
2013-08-07 13:06:00,78.2,60.2,30.14,West,265,1.0,4.0,54,0.00,,---,0.00,VWS V14.01,2013-08-07 17:06:00,
2013-08-07 13:07:00,77.9,60.5,30.14,WSW,239,5.0,7.0,55,0.00,,---,0.00,VWS V14.01,2013-08-07 17:07:00,
2013-08-07 13:09:00,77.3,59.4,30.14,SW,222,7.0,7.0,54,0.00,,---,0.00,VWS V14.01,2013-08-07 17:09:00,
2013-08-07 13:10:00,76.8,58.4,30.14,SW,224,6.0,7.0,53,0.00,,---,0.00,VWS V14.01,2013-08-07 17:10:00,
2013-08-07 13:11:00,76.6,60.2,30.14,WSW,238,8.0,8.0,57,0.00,,---,0.00,VWS V14.01,2013-08-07 17:11:00,
2013-08-07 13:12:00,76.4,58.0,30.14,SW,223,7.0,8.0,53,0.00,,---,0.00,VWS V14.01,2013-08-07 17:12:00,
2013-08-07 13:14:00,76.2,59.9,30.14,SW,226,8.0,8.0,57,0.00,,---,0.00,VWS V14.01,2013-08-07 17:14:00,
2013-08-07 13:15:00,76.2,60.4,30.14,ESE,120,5.0,8.0,58,0.00,,---,0.00,VWS V14.01,2013-08-07 17:15:00,
2013-08-07 13:19:00,76.4,58.0,30.14,East,91,5.0,8.0,53,0.00,,---,0.00,VWS V14.01,2013-08-07 17:19:00,
2013-08-07 13:20:00,76.5,58.1,30.14,NW,325,6.0,8.0,53,0.00,,---,0.00,VWS V14.01,2013-08-07 17:20:00,
2013-08-07 13:24:00,77.2,59.8,30.14,SSE,164,3.0,10.0,55,0.00,,---,0.00,VWS V14.01,2013-08-07 17:24:00,
2013-08-07 13:25:00,77.2,59.8,30.14,SSW,208,6.0,10.0,55,0.00,,---,0.00,VWS V14.01,2013-08-07 17:25:00,
2013-08-07 13:26:00,77.2,60.3,30.13,ENE,72,2.0,10.0,56,0.00,,---,0.00,VWS V14.01,2013-08-07 17:26:00,
2013-08-07 13:27:00,77.3,58.8,30.13,East,81,1.0,10.0,53,0.00,,---,0.00,VWS V14.01,2013-08-07 17:27:00,
2013-08-07 13:29:00,77.3,58.3,30.13,WSW,253,5.0,5.0,52,0.00,,---,0.00,VWS V14.01,2013-08-07 17:29:00,
2013-08-07 13:30:00,77.3,58.3,30.13,SW,214,4.0,7.0,52,0.00,,---,0.00,VWS V14.01,2013-08-07 17:30:00,
2013-08-07 13:31:00,77.3,58.3,30.13,SSE,162,5.0,7.0,52,0.00,,---,0.00,VWS V14.01,2013-08-07 17:31:00,
2013-08-07 13:34:00,77.6,57.5,30.13,South,170,1.0,8.0,50,0.00,,---,0.00,VWS V14.01,2013-08-07 17:34:00,
2013-08-07 13:35:00,77.7,58.7,30.13,SW,224,5.0,8.0,52,0.00,,---,0.00,VWS V14.01,2013-08-07 17:35:00,
2013-08-07 13:36:00,77.7,58.2,30.13,SSW,201,8.0,9.0,51,0.00,,---,0.00,VWS V14.01,2013-08-07 17:36:00,
2013-08-07 13:37:00,77.6,58.1,30.13,ESE,115,15.0,16.0,51,0.00,,---,0.00,VWS V14.01,2013-08-07 17:37:00,
2013-08-07 13:39:00,76.5,57.6,30.13,South,179,7.0,16.0,52,0.00,,---,0.00,VWS V14.01,2013-08-07 17:39:00,
2013-08-07 13:40:00,76.3,57.4,30.13,SE,143,10.0,16.0,52,0.00,,---,0.00,VWS V14.01,2013-08-07 17:40:00,
2013-08-07 13:42:00,76.0,57.1,30.13,NE,56,9.0,16.0,52,0.00,,---,0.00,VWS V14.01,2013-08-07 17:42:00,
2013-08-07 13:43:00,76.0,55.5,30.13,SSE,150,7.0,16.0,49,0.00,,---,0.00,VWS V14.01,2013-08-07 17:43:00,
2013-08-07 13:45:00,76.0,56.6,30.13,SSE,155,10.0,16.0,51,0.00,,---,0.00,VWS V14.01,2013-08-07 17:45:00,
2013-08-07 13:46:00,76.2,57.8,30.14,SE,132,5.0,16.0,53,0.00,,---,0.00,VWS V14.01,2013-08-07 17:46:00,
2013-08-07 13:47:00,76.3,57.9,30.13,SSE,159,11.0,16.0,53,0.00,,---,0.00,VWS V14.01,2013-08-07 17:47:00,
2013-08-07 13:48:00,76.3,56.9,30.13,SE,145,9.0,16.0,51,0.00,,---,0.00,VWS V14.01,2013-08-07 17:48:00,
2013-08-07 13:49:00,76.2,55.7,30.13,ESE,103,9.0,16.0,49,0.00,,---,0.00,VWS V14.01,2013-08-07 17:49:00,
2013-08-07 13:50:00,76.2,55.7,30.13,SE,143,8.0,16.0,49,0.00,,---,0.00,VWS V14.01,2013-08-07 17:50:00,
2013-08-07 13:53:00,76.0,56.6,30.14,South,177,8.0,16.0,51,0.00,,---,0.00,VWS V14.01,2013-08-07 17:53:00,
2013-08-07 13:54:00,76.1,57.8,30.14,East,101,5.0,16.0,53,0.00,,---,0.00,VWS V14.01,2013-08-07 17:54:00,
2013-08-07 13:55:00,76.1,57.8,30.14,SE,141,11.0,16.0,53,0.00,,---,0.00,VWS V14.01,2013-08-07 17:55:00,
2013-08-07 13:58:00,76.3,57.4,30.14,WSW,252,4.0,4.0,52,0.00,,---,0.00,VWS V14.01,2013-08-07 17:58:00,
2013-08-07 13:59:00,76.4,57.0,30.14,SE,132,4.0,7.0,51,0.00,,---,0.00,VWS V14.01,2013-08-07 17:59:00,
2013-08-07 14:00:00,76.4,57.0,30.14,SW,230,3.0,7.0,51,0.00,,---,0.00,VWS V14.01,2013-08-07 18:00:00,
2013-08-07 14:02:00,76.5,56.5,30.13,SSE,155,4.0,7.0,50,0.00,,---,0.00,VWS V14.01,2013-08-07 18:02:00,
2013-08-07 14:04:00,76.4,57.5,30.13,SSE,153,4.0,7.0,52,0.00,,---,0.00,VWS V14.01,2013-08-07 18:04:00,
2013-08-07 14:05:00,76.3,56.3,30.14,ENE,58,3.0,7.0,50,0.00,,---,0.00,VWS V14.01,2013-08-07 18:05:00,
2013-08-07 14:06:00,76.3,56.3,30.13,SE,143,5.0,7.0,50,0.00,,---,0.00,VWS V14.01,2013-08-07 18:06:00,
2013-08-07 14:08:00,76.4,58.5,30.14,SSW,212,3.0,7.0,54,0.00,,---,0.00,VWS V14.01,2013-08-07 18:08:00,
2013-08-07 14:09:00,76.5,57.0,30.14,East,85,3.0,7.0,51,0.00,,---,0.00,VWS V14.01,2013-08-07 18:09:00,
2013-08-07 14:10:00,76.6,58.2,30.14,NE,39,1.0,7.0,53,0.00,,---,0.00,VWS V14.01,2013-08-07 18:10:00,
2013-08-07 14:11:00,76.7,56.7,30.14,WSW,255,7.0,7.0,50,0.00,,---,0.00,VWS V14.01,2013-08-07 18:11:00,
2013-08-07 14:13:00,76.8,56.2,30.13,East,100,4.0,8.0,49,0.00,,---,0.00,VWS V14.01,2013-08-07 18:13:00,
2013-08-07 14:14:00,76.8,58.4,30.13,NW,316,6.0,8.0,53,0.00,,---,0.00,VWS V14.01,2013-08-07 18:14:00,
2013-08-07 14:15:00,76.8,58.4,30.13,NNE,12,2.0,8.0,53,0.00,,---,0.00,VWS V14.01,2013-08-07 18:15:00,
2013-08-07 14:16:00,76.8,57.9,30.14,ESE,120,10.0,10.0,52,0.00,,---,0.00,VWS V14.01,2013-08-07 18:16:00,
2013-08-07 14:17:00,76.6,57.7,30.14,SE,142,10.0,10.0,52,0.00,,---,0.00,VWS V14.01,2013-08-07 18:17:00,
2013-08-07 14:18:00,76.3,57.4,30.13,SE,130,12.0,12.0,52,0.00,,---,0.00,VWS V14.01,2013-08-07 18:18:00,
2013-08-07 14:20:00,75.9,58.1,30.14,East,90,7.0,12.0,54,0.00,,---,0.00,VWS V14.01,2013-08-07 18:20:00,
2013-08-07 14:22:00,76.0,58.2,30.13,SE,127,9.0,12.0,54,0.00,,---,0.00,VWS V14.01,2013-08-07 18:22:00,
2013-08-07 14:23:00,76.0,57.1,30.13,SSE,156,9.0,12.0,52,0.00,,---,0.00,VWS V14.01,2013-08-07 18:23:00,
2013-08-07 14:25:00,75.7,56.3,30.13,SE,143,8.0,12.0,51,0.00,,---,0.00,VWS V14.01,2013-08-07 18:25:00,
2013-08-07 14:26:00,75.7,56.8,30.14,NNE,21,4.0,12.0,52,0.00,,---,0.00,VWS V14.01,2013-08-07 18:26:00,
2013-08-07 14:27:00,75.8,58.0,30.14,SSE,159,8.0,12.0,54,0.00,,---,0.00,VWS V14.01,2013-08-07 18:27:00,
2013-08-07 14:28:00,76.2,57.8,30.14,SSW,196,3.0,8.0,53,0.00,,---,0.00,VWS V14.01,2013-08-07 18:28:00,
2013-08-07 14:30:00,76.6,57.7,30.14,SSW,197,3.0,8.0,52,0.00,,---,0.00,VWS V14.01,2013-08-07 18:30:00,
2013-08-07 14:31:00,76.6,57.1,30.14,SSE,150,6.0,8.0,51,0.00,,---,0.00,VWS V14.01,2013-08-07 18:31:00,
2013-08-07 14:32:00,76.4,56.4,30.14,SSW,197,5.0,8.0,50,0.00,,---,0.00,VWS V14.01,2013-08-07 18:32:00,
2013-08-07 14:34:00,76.4,57.0,30.14,ENE,76,1.0,8.0,51,0.00,,---,0.00,VWS V14.01,2013-08-07 18:34:00,
2013-08-07 14:35:00,76.7,58.3,30.14,NNE,18,2.0,8.0,53,0.00,,---,0.00,VWS V14.01,2013-08-07 18:35:00,
2013-08-07 14:36:00,76.8,56.2,30.14,South,176,7.0,8.0,49,0.00,,---,0.00,VWS V14.01,2013-08-07 18:36:00,
2013-08-07 14:37:00,77.0,57.0,30.14,NE,51,8.0,8.0,50,0.00,,---,0.00,VWS V14.01,2013-08-07 18:37:00,
2013-08-07 14:39:00,77.2,57.1,30.14,North,349,4.0,8.0,50,0.00,,---,0.00,VWS V14.01,2013-08-07 18:39:00,
2013-08-07 14:41:00,77.3,58.3,30.13,South,191,6.0,10.0,52,0.00,,---,0.00,VWS V14.01,2013-08-07 18:41:00,
2013-08-07 14:42:00,77.3,58.3,30.13,NE,56,3.0,10.0,52,0.00,,---,0.00,VWS V14.01,2013-08-07 18:42:00,
2013-08-07 14:44:00,77.2,58.8,30.13,ENE,74,5.0,10.0,53,0.00,,---,0.00,VWS V14.01,2013-08-07 18:44:00,
2013-08-07 14:45:00,77.1,58.1,30.14,WNW,284,3.0,10.0,52,0.00,,---,0.00,VWS V14.01,2013-08-07 18:45:00,
2013-08-07 14:46:00,76.9,59.0,30.13,SSW,201,3.0,10.0,54,0.00,,---,0.00,VWS V14.01,2013-08-07 18:46:00,
2013-08-07 14:48:00,76.9,59.0,30.13,East,89,4.0,12.0,54,0.00,,---,0.00,VWS V14.01,2013-08-07 18:48:00,
2013-08-07 14:49:00,77.0,59.1,30.13,SSE,149,5.0,12.0,54,0.00,,---,0.00,VWS V14.01,2013-08-07 18:49:00,
2013-08-07 14:50:00,76.8,56.8,30.13,NE,34,4.0,12.0,50,0.00,,---,0.00,VWS V14.01,2013-08-07 18:50:00,
2013-08-07 14:51:00,76.7,56.7,30.13,SE,131,3.0,12.0,50,0.00,,---,0.00,VWS V14.01,2013-08-07 18:51:00,
2013-08-07 14:53:00,76.8,58.9,30.13,SSE,149,10.0,12.0,54,0.00,,---,0.00,VWS V14.01,2013-08-07 18:53:00,
2013-08-07 14:55:00,76.3,59.0,30.13,ESE,115,12.0,14.0,55,0.00,,---,0.00,VWS V14.01,2013-08-07 18:55:00,
2013-08-07 14:56:00,76.1,56.7,30.13,SE,140,10.0,14.0,51,0.00,,---,0.00,VWS V14.01,2013-08-07 18:56:00,
2013-08-07 14:57:00,76.0,58.2,30.13,ESE,122,10.0,14.0,54,0.00,,---,0.00,VWS V14.01,2013-08-07 18:57:00,
2013-08-07 15:00:00,75.5,56.7,30.13,SE,128,8.0,10.0,52,0.00,,---,0.00,VWS V14.01,2013-08-07 19:00:00,
2013-08-07 15:01:00,75.5,57.7,30.13,SE,146,8.0,10.0,54,0.00,,---,0.00,VWS V14.01,2013-08-07 19:01:00,
2013-08-07 15:02:00,75.4,58.1,30.13,SE,134,10.0,11.0,55,0.00,,---,0.00,VWS V14.01,2013-08-07 19:02:00,
2013-08-07 15:03:00,75.4,56.6,30.13,East,94,4.0,11.0,52,0.00,,---,0.00,VWS V14.01,2013-08-07 19:03:00,
2013-08-07 15:05:00,75.7,58.4,30.13,SE,127,8.0,11.0,55,0.00,,---,0.00,VWS V14.01,2013-08-07 19:05:00,
2013-08-07 15:07:00,75.7,58.9,30.13,SE,131,8.0,12.0,56,0.00,,---,0.00,VWS V14.01,2013-08-07 19:07:00,
2013-08-07 15:08:00,75.5,57.2,30.13,ESE,114,14.0,15.0,53,0.00,,---,0.00,VWS V14.01,2013-08-07 19:08:00,
2013-08-07 15:09:00,75.4,57.1,30.13,SSW,195,13.0,15.0,53,0.00,,---,0.00,VWS V14.01,2013-08-07 19:09:00,
2013-08-07 15:11:00,75.3,58.5,30.12,SE,137,10.0,15.0,56,0.00,,---,0.00,VWS V14.01,2013-08-07 19:11:00,
2013-08-07 15:12:00,75.3,59.0,30.12,SSE,156,8.0,15.0,57,0.00,,---,0.00,VWS V14.01,2013-08-07 19:12:00,
2013-08-07 15:13:00,75.4,57.1,30.13,SE,136,8.0,15.0,53,0.00,,---,0.00,VWS V14.01,2013-08-07 19:13:00,
2013-08-07 15:15:00,75.5,57.2,30.12,NE,46,6.0,15.0,53,0.00,,---,0.00,VWS V14.01,2013-08-07 19:15:00,
2013-08-07 15:17:00,76.0,57.7,30.12,South,179,7.0,15.0,53,0.00,,---,0.00,VWS V14.01,2013-08-07 19:17:00,
2013-08-07 15:18:00,76.1,58.3,30.12,SSE,149,10.0,15.0,54,0.00,,---,0.00,VWS V14.01,2013-08-07 19:18:00,
2013-08-07 15:21:00,75.8,56.9,30.12,ESE,112,10.0,15.0,52,0.00,,---,0.00,VWS V14.01,2013-08-07 19:21:00,
2013-08-07 15:22:00,75.7,56.3,30.12,ESE,118,8.0,15.0,51,0.00,,---,0.00,VWS V14.01,2013-08-07 19:22:00,
2013-08-07 15:23:00,75.6,57.3,30.12,SE,137,6.0,15.0,53,0.00,,---,0.00,VWS V14.01,2013-08-07 19:23:00,
2013-08-07 15:24:00,75.6,56.2,30.12,SE,140,3.0,15.0,51,0.00,,---,0.00,VWS V14.01,2013-08-07 19:24:00,
2013-08-07 15:25:00,75.6,56.2,30.12,SE,146,6.0,15.0,51,0.00,,---,0.00,VWS V14.01,2013-08-07 19:25:00,
2013-08-07 15:27:00,75.7,56.8,30.12,NE,41,7.0,15.0,52,0.00,,---,0.00,VWS V14.01,2013-08-07 19:27:00,
2013-08-07 15:29:00,75.9,58.1,30.12,South,176,7.0,10.0,54,0.00,,---,0.00,VWS V14.01,2013-08-07 19:29:00,
2013-08-07 15:30:00,76.2,57.8,30.12,NNE,25,6.0,10.0,53,0.00,,---,0.00,VWS V14.01,2013-08-07 19:30:00,
2013-08-07 15:33:00,76.1,56.7,30.12,SE,127,8.0,11.0,51,0.00,,---,0.00,VWS V14.01,2013-08-07 19:33:00,
2013-08-07 15:34:00,76.0,57.1,30.12,SE,129,7.0,12.0,52,0.00,,---,0.00,VWS V14.01,2013-08-07 19:34:00,
2013-08-07 15:35:00,76.0,57.1,30.12,South,181,3.0,12.0,52,0.00,,---,0.00,VWS V14.01,2013-08-07 19:35:00,
2013-08-07 15:36:00,76.1,57.8,30.12,SSW,210,4.0,12.0,53,0.00,,---,0.00,VWS V14.01,2013-08-07 19:36:00,
2013-08-07 15:39:00,76.1,57.2,30.12,ESE,122,11.0,12.0,52,0.00,,---,0.00,VWS V14.01,2013-08-07 19:39:00,
2013-08-07 15:40:00,76.1,59.3,30.12,SE,125,8.0,12.0,56,0.00,,---,0.00,VWS V14.01,2013-08-07 19:40:00,
2013-08-07 15:42:00,76.0,59.7,30.12,ESE,121,15.0,16.0,57,0.00,,---,0.00,VWS V14.01,2013-08-07 19:42:00,
2013-08-07 15:45:00,75.7,55.8,30.12,SE,140,11.0,16.0,50,0.00,,---,0.00,VWS V14.01,2013-08-07 19:45:00,
2013-08-07 15:46:00,75.7,55.2,30.12,SE,131,9.0,16.0,49,0.00,,---,0.00,VWS V14.01,2013-08-07 19:46:00,
2013-08-07 15:47:00,75.7,56.3,30.12,SSE,149,8.0,16.0,51,0.00,,---,0.00,VWS V14.01,2013-08-07 19:47:00,
2013-08-07 15:48:00,75.9,56.5,30.12,SE,134,10.0,16.0,51,0.00,,---,0.00,VWS V14.01,2013-08-07 19:48:00,
2013-08-07 15:49:00,75.9,56.5,30.12,SE,128,8.0,16.0,51,0.00,,---,0.00,VWS V14.01,2013-08-07 19:49:00,
2013-08-07 15:51:00,76.0,57.1,30.12,SE,132,7.0,16.0,52,0.00,,---,0.00,VWS V14.01,2013-08-07 19:51:00,
2013-08-07 15:52:00,76.0,57.1,30.12,SSW,193,7.0,16.0,52,0.00,,---,0.00,VWS V14.01,2013-08-07 19:52:00,
2013-08-07 15:53:00,76.2,55.7,30.12,SSE,156,5.0,16.0,49,0.00,,---,0.00,VWS V14.01,2013-08-07 19:53:00,
2013-08-07 15:56:00,76.5,58.1,30.12,NE,56,4.0,16.0,53,0.00,,---,0.00,VWS V14.01,2013-08-07 19:56:00,
2013-08-07 15:57:00,76.6,56.6,30.12,SW,222,8.0,16.0,50,0.00,,---,0.00,VWS V14.01,2013-08-07 19:57:00,
2013-08-07 15:58:00,76.6,56.0,30.12,East,82,10.0,16.0,49,0.00,,---,0.00,VWS V14.01,2013-08-07 19:58:00,
2013-08-07 16:01:00,76.9,56.3,30.11,ENE,77,5.0,10.0,49,0.00,,---,0.00,VWS V14.01,2013-08-07 20:01:00,
2013-08-07 16:02:00,76.9,56.9,30.11,SSE,158,3.0,10.0,50,0.00,,---,0.00,VWS V14.01,2013-08-07 20:02:00,
2013-08-07 16:03:00,77.0,57.0,30.11,South,180,8.0,10.0,50,0.00,,---,0.00,VWS V14.01,2013-08-07 20:03:00,
2013-08-07 16:04:00,77.1,57.6,30.11,ESE,103,5.0,10.0,51,0.00,,---,0.00,VWS V14.01,2013-08-07 20:04:00,
2013-08-07 16:06:00,77.1,55.9,30.11,SE,143,4.0,10.0,48,0.00,,---,0.00,VWS V14.01,2013-08-07 20:06:00,
2013-08-07 16:07:00,77.2,56.6,30.11,SSE,156,7.0,10.0,49,0.00,,---,0.00,VWS V14.01,2013-08-07 20:07:00,
2013-08-07 16:09:00,77.2,58.2,30.11,SE,135,4.0,10.0,52,0.00,,---,0.00,VWS V14.01,2013-08-07 20:09:00,
2013-08-07 16:10:00,77.2,58.2,30.11,South,182,5.0,10.0,52,0.00,,---,0.00,VWS V14.01,2013-08-07 20:10:00,
2013-08-07 16:11:00,77.3,58.3,30.11,SE,139,8.0,10.0,52,0.00,,---,0.00,VWS V14.01,2013-08-07 20:11:00,
2013-08-07 16:12:00,77.3,57.2,30.11,SSE,155,6.0,10.0,50,0.00,,---,0.00,VWS V14.01,2013-08-07 20:12:00,
2013-08-07 16:13:00,77.3,54.9,30.11,SE,141,7.0,10.0,46,0.00,,---,0.00,VWS V14.01,2013-08-07 20:13:00,
2013-08-07 16:16:00,77.5,56.9,30.11,North,355,4.0,10.0,49,0.00,,---,0.00,VWS V14.01,2013-08-07 20:16:00,
2013-08-07 16:17:00,77.4,57.3,30.11,SSE,159,9.0,13.0,50,0.00,,---,0.00,VWS V14.01,2013-08-07 20:17:00,
2013-08-07 16:18:00,77.2,56.6,30.11,SE,136,9.0,13.0,49,0.00,,---,0.00,VWS V14.01,2013-08-07 20:18:00,
2013-08-07 16:22:00,76.8,56.8,30.11,SSW,211,7.0,14.0,50,0.00,,---,0.00,VWS V14.01,2013-08-07 20:22:00,
2013-08-07 16:23:00,76.8,58.4,30.11,SE,125,10.0,14.0,53,0.00,,---,0.00,VWS V14.01,2013-08-07 20:23:00,
2013-08-07 16:24:00,76.7,59.3,30.11,ESE,120,3.0,14.0,55,0.00,,---,0.00,VWS V14.01,2013-08-07 20:24:00,
2013-08-07 16:27:00,76.8,56.8,30.11,South,176,5.0,14.0,50,0.00,,---,0.00,VWS V14.01,2013-08-07 20:27:00,
2013-08-07 16:28:00,76.8,56.8,30.11,SSW,208,8.0,14.0,50,0.00,,---,0.00,VWS V14.01,2013-08-07 20:28:00,
2013-08-07 16:30:00,76.8,57.9,30.10,North,359,2.0,11.0,52,0.00,,---,0.00,VWS V14.01,2013-08-07 20:30:00,
2013-08-07 16:31:00,77.0,59.1,30.11,SE,145,10.0,11.0,54,0.00,,---,0.00,VWS V14.01,2013-08-07 20:31:00,
2013-08-07 16:32:00,77.0,57.5,30.11,SE,130,12.0,13.0,51,0.00,,---,0.00,VWS V14.01,2013-08-07 20:32:00,
2013-08-07 16:33:00,77.0,57.5,30.11,West,277,11.0,13.0,51,0.00,,---,0.00,VWS V14.01,2013-08-07 20:33:00,
2013-08-07 16:37:00,76.8,59.4,30.10,SE,143,10.0,13.0,55,0.00,,---,0.00,VWS V14.01,2013-08-07 20:37:00,
2013-08-07 16:38:00,76.7,57.8,30.10,ESE,115,10.0,13.0,52,0.00,,---,0.00,VWS V14.01,2013-08-07 20:38:00,
2013-08-07 16:39:00,76.4,57.5,30.10,SE,136,7.0,13.0,52,0.00,,---,0.00,VWS V14.01,2013-08-07 20:39:00,
2013-08-07 16:42:00,76.2,59.4,30.10,ESE,112,7.0,13.0,56,0.00,,---,0.00,VWS V14.01,2013-08-07 20:42:00,
2013-08-07 16:43:00,76.2,57.8,30.10,East,96,12.0,16.0,53,0.00,,---,0.00,VWS V14.01,2013-08-07 20:43:00,
2013-08-07 16:44:00,76.1,57.2,30.10,East,96,12.0,16.0,52,0.00,,---,0.00,VWS V14.01,2013-08-07 20:44:00,
2013-08-07 16:47:00,75.8,57.5,30.10,East,93,9.0,16.0,53,0.00,,---,0.00,VWS V14.01,2013-08-07 20:47:00,
2013-08-07 16:49:00,75.8,58.0,30.10,ESE,119,11.0,16.0,54,0.00,,---,0.00,VWS V14.01,2013-08-07 20:49:00,
2013-08-07 16:50:00,75.8,57.5,30.10,SE,140,10.0,16.0,53,0.00,,---,0.00,VWS V14.01,2013-08-07 20:50:00,
2013-08-07 16:53:00,75.9,57.6,30.10,SE,136,11.0,17.0,53,0.00,,---,0.00,VWS V14.01,2013-08-07 20:53:00,
2013-08-07 16:54:00,75.9,58.6,30.10,SSE,153,5.0,17.0,55,0.00,,---,0.00,VWS V14.01,2013-08-07 20:54:00,
2013-08-07 16:55:00,75.9,58.6,30.10,SE,143,8.0,17.0,55,0.00,,---,0.00,VWS V14.01,2013-08-07 20:55:00,
2013-08-07 16:58:00,75.9,57.6,30.10,ESE,115,12.0,17.0,53,0.00,,---,0.00,VWS V14.01,2013-08-07 20:58:00,
2013-08-07 17:00:00,75.8,58.0,30.10,SE,142,9.0,14.0,54,0.00,,---,0.00,VWS V14.01,2013-08-07 21:00:00,
2013-08-07 17:01:00,75.8,59.5,30.10,SE,141,10.0,14.0,57,0.00,,---,0.00,VWS V14.01,2013-08-07 21:01:00,
2013-08-07 17:04:00,75.8,59.0,30.09,SSW,194,8.0,14.0,56,0.00,,---,0.00,VWS V14.01,2013-08-07 21:04:00,
2013-08-07 17:05:00,75.8,59.0,30.09,ESE,104,5.0,14.0,56,0.00,,---,0.00,VWS V14.01,2013-08-07 21:05:00,
2013-08-07 17:06:00,75.9,58.6,30.10,SE,143,11.0,14.0,55,0.00,,---,0.00,VWS V14.01,2013-08-07 21:06:00,
2013-08-07 17:07:00,76.0,58.2,30.10,West,269,8.0,14.0,54,0.00,,---,0.00,VWS V14.01,2013-08-07 21:07:00,
2013-08-07 17:09:00,76.1,59.8,30.09,ENE,67,6.0,14.0,57,0.00,,---,0.00,VWS V14.01,2013-08-07 21:09:00,
2013-08-07 17:10:00,76.1,59.8,30.09,SSE,159,8.0,14.0,57,0.00,,---,0.00,VWS V14.01,2013-08-07 21:10:00,
2013-08-07 17:11:00,76.1,60.8,30.10,SE,143,10.0,14.0,59,0.00,,---,0.00,VWS V14.01,2013-08-07 21:11:00,
2013-08-07 17:12:00,76.1,60.8,30.10,SE,130,12.0,14.0,59,0.00,,---,0.00,VWS V14.01,2013-08-07 21:12:00,
2013-08-07 17:15:00,75.7,60.8,30.09,SE,136,10.0,14.0,60,0.00,,---,0.00,VWS V14.01,2013-08-07 21:15:00,
2013-08-07 17:16:00,75.7,60.8,30.09,SSE,151,9.0,14.0,60,0.00,,---,0.00,VWS V14.01,2013-08-07 21:16:00,
2013-08-07 17:17:00,75.6,61.7,30.09,ESE,106,9.0,14.0,62,0.00,,---,0.00,VWS V14.01,2013-08-07 21:17:00,
2013-08-07 17:18:00,75.5,61.6,30.09,ESE,106,11.0,14.0,62,0.00,,---,0.00,VWS V14.01,2013-08-07 21:18:00,
2013-08-07 17:21:00,75.3,60.0,30.09,ESE,105,11.0,14.0,59,0.00,,---,0.00,VWS V14.01,2013-08-07 21:21:00,
2013-08-07 17:22:00,75.3,60.5,30.09,East,100,8.0,14.0,60,0.00,,---,0.00,VWS V14.01,2013-08-07 21:22:00,
2013-08-07 17:23:00,75.2,60.4,30.09,East,100,12.0,14.0,60,0.00,,---,0.00,VWS V14.01,2013-08-07 21:23:00,
2013-08-07 17:26:00,75.0,60.2,30.09,SE,139,7.0,14.0,60,0.00,,---,0.00,VWS V14.01,2013-08-07 21:26:00,
2013-08-07 17:27:00,75.0,60.2,30.09,ESE,122,7.0,14.0,60,0.00,,---,0.00,VWS V14.01,2013-08-07 21:27:00,
2013-08-07 17:29:00,75.0,61.1,30.09,ESE,120,8.0,8.0,62,0.00,,---,0.00,VWS V14.01,2013-08-07 21:29:00,
2013-08-07 17:32:00,75.0,62.0,30.10,East,91,9.0,9.0,64,0.00,,---,0.00,VWS V14.01,2013-08-07 21:32:00,
2013-08-07 17:33:00,75.0,62.0,30.10,ESE,104,12.0,12.0,64,0.00,,---,0.00,VWS V14.01,2013-08-07 21:33:00,
2013-08-07 17:34:00,74.9,60.6,30.10,ESE,105,7.0,12.0,61,0.00,,---,0.00,VWS V14.01,2013-08-07 21:34:00,
2013-08-07 17:38:00,74.8,60.0,30.10,SE,125,10.0,12.0,60,0.00,,---,0.00,VWS V14.01,2013-08-07 21:38:00,
2013-08-07 17:39:00,74.8,60.5,30.09,ESE,105,7.0,12.0,61,0.00,,---,0.00,VWS V14.01,2013-08-07 21:39:00,
2013-08-07 17:40:00,74.8,60.5,30.09,East,84,10.0,12.0,61,0.00,,---,0.00,VWS V14.01,2013-08-07 21:40:00,
2013-08-07 17:43:00,74.6,59.8,30.10,East,90,9.0,16.0,60,0.00,,---,0.00,VWS V14.01,2013-08-07 21:43:00,
2013-08-07 17:45:00,74.5,59.7,30.09,East,92,9.0,16.0,60,0.00,,---,0.00,VWS V14.01,2013-08-07 21:45:00,
2013-08-07 17:48:00,74.4,60.5,30.09,East,91,11.0,16.0,62,0.00,,---,0.00,VWS V14.01,2013-08-07 21:48:00,
2013-08-07 17:50:00,74.3,60.9,30.09,SSE,153,8.0,16.0,63,0.00,,---,0.00,VWS V14.01,2013-08-07 21:50:00,
2013-08-07 17:51:00,74.3,61.8,30.09,ESE,105,12.0,16.0,65,0.00,,---,0.00,VWS V14.01,2013-08-07 21:51:00,
2013-08-07 17:54:00,74.3,61.8,30.09,East,89,12.0,16.0,65,0.00,,---,0.00,VWS V14.01,2013-08-07 21:54:00,
2013-08-07 17:55:00,74.2,60.4,30.09,East,100,11.0,16.0,62,0.00,,---,0.00,VWS V14.01,2013-08-07 21:55:00,
2013-08-07 17:56:00,74.2,59.9,30.09,East,95,8.0,16.0,61,0.00,,---,0.00,VWS V14.01,2013-08-07 21:56:00,
2013-08-07 17:57:00,74.1,60.3,30.09,East,94,9.0,16.0,62,0.00,,---,0.00,VWS V14.01,2013-08-07 21:57:00,
2013-08-07 17:59:00,74.0,59.7,30.09,ESE,108,9.0,11.0,61,0.00,,---,0.00,VWS V14.01,2013-08-07 21:59:00,
2013-08-07 18:00:00,74.0,60.6,30.09,ESE,108,10.0,11.0,63,0.00,,---,0.00,VWS V14.01,2013-08-07 22:00:00,
2013-08-07 18:01:00,73.9,59.6,30.09,ESE,104,13.0,14.0,61,0.00,,---,0.00,VWS V14.01,2013-08-07 22:01:00,
2013-08-07 18:03:00,73.8,59.1,30.09,East,100,11.0,14.0,60,0.00,,---,0.00,VWS V14.01,2013-08-07 22:03:00,
2013-08-07 18:05:00,73.8,60.4,30.09,ESE,121,8.0,14.0,63,0.00,,---,0.00,VWS V14.01,2013-08-07 22:05:00,
2013-08-07 18:07:00,73.7,59.0,30.09,ESE,106,8.0,14.0,60,0.00,,---,0.00,VWS V14.01,2013-08-07 22:07:00,
2013-08-07 18:08:00,73.6,59.3,30.09,East,101,8.0,14.0,61,0.00,,---,0.00,VWS V14.01,2013-08-07 22:08:00,
2013-08-07 18:10:00,73.5,59.2,30.09,ESE,115,8.0,14.0,61,0.00,,---,0.00,VWS V14.01,2013-08-07 22:10:00,
2013-08-07 18:12:00,73.5,59.7,30.09,East,84,8.0,14.0,62,0.00,,---,0.00,VWS V14.01,2013-08-07 22:12:00,
2013-08-07 18:13:00,73.4,59.6,30.09,ENE,71,6.0,14.0,62,0.00,,---,0.00,VWS V14.01,2013-08-07 22:13:00,
2013-08-07 18:15:00,73.4,59.2,30.09,SE,141,8.0,14.0,61,0.00,,---,0.00,VWS V14.01,2013-08-07 22:15:00,
2013-08-07 18:16:00,73.3,59.0,30.09,SE,142,9.0,14.0,61,0.00,,---,0.00,VWS V14.01,2013-08-07 22:16:00,
2013-08-07 18:18:00,73.3,60.4,30.09,East,89,7.0,14.0,64,0.00,,---,0.00,VWS V14.01,2013-08-07 22:18:00,
2013-08-07 18:19:00,73.3,59.0,30.09,East,98,9.0,14.0,61,0.00,,---,0.00,VWS V14.01,2013-08-07 22:19:00,
2013-08-07 18:21:00,73.2,59.4,30.09,East,94,6.0,14.0,62,0.00,,---,0.00,VWS V14.01,2013-08-07 22:21:00,
2013-08-07 18:22:00,73.2,59.4,30.09,ESE,108,6.0,14.0,62,0.00,,---,0.00,VWS V14.01,2013-08-07 22:22:00,
2013-08-07 18:23:00,73.1,59.3,30.09,SE,139,7.0,14.0,62,0.00,,---,0.00,VWS V14.01,2013-08-07 22:23:00,
2013-08-07 18:25:00,73.1,59.3,30.09,SSE,153,11.0,14.0,62,0.00,,---,0.00,VWS V14.01,2013-08-07 22:25:00,
2013-08-07 18:27:00,73.1,59.8,30.09,ESE,111,9.0,14.0,63,0.00,,---,0.00,VWS V14.01,2013-08-07 22:27:00,
2013-08-07 18:30:00,72.9,59.1,30.09,ESE,108,8.0,9.0,62,0.00,,---,0.00,VWS V14.01,2013-08-07 22:30:00,
2013-08-07 18:31:00,72.8,59.0,30.09,East,101,6.0,9.0,62,0.00,,---,0.00,VWS V14.01,2013-08-07 22:31:00,
2013-08-07 18:32:00,72.8,59.5,30.09,ESE,103,5.0,12.0,63,0.00,,---,0.00,VWS V14.01,2013-08-07 22:32:00,
2013-08-07 18:34:00,72.7,58.9,30.09,East,100,8.0,13.0,62,0.00,,---,0.00,VWS V14.01,2013-08-07 22:34:00,
2013-08-07 18:35:00,72.6,59.7,30.08,East,83,7.0,13.0,64,0.00,,---,0.00,VWS V14.01,2013-08-07 22:35:00,
2013-08-07 18:36:00,72.6,58.8,30.08,East,96,6.0,13.0,62,0.00,,---,0.00,VWS V14.01,2013-08-07 22:36:00,
2013-08-07 18:37:00,72.6,58.8,30.09,ENE,78,6.0,13.0,62,0.00,,---,0.00,VWS V14.01,2013-08-07 22:37:00,
2013-08-07 18:40:00,72.4,58.7,30.08,East,79,12.0,13.0,62,0.00,,---,0.00,VWS V14.01,2013-08-07 22:40:00,
2013-08-07 18:41:00,72.4,58.7,30.08,East,95,14.0,15.0,62,0.00,,---,0.00,VWS V14.01,2013-08-07 22:41:00,
2013-08-07 18:42:00,72.3,59.5,30.08,East,89,7.0,15.0,64,0.00,,---,0.00,VWS V14.01,2013-08-07 22:42:00,
2013-08-07 18:45:00,72.2,59.4,30.09,SE,134,5.0,15.0,64,0.00,,---,0.00,VWS V14.01,2013-08-07 22:45:00,
2013-08-07 18:46:00,72.2,59.4,30.09,ESE,106,11.0,17.0,64,0.00,,---,0.00,VWS V14.01,2013-08-07 22:46:00,
2013-08-07 18:48:00,72.1,58.4,30.09,SE,125,9.0,17.0,62,0.00,,---,0.00,VWS V14.01,2013-08-07 22:48:00,
2013-08-07 18:51:00,72.0,58.7,30.09,East,84,6.0,17.0,63,0.00,,---,0.00,VWS V14.01,2013-08-07 22:51:00,
2013-08-07 18:52:00,71.9,59.1,30.09,ESE,120,12.0,17.0,64,0.00,,---,0.00,VWS V14.01,2013-08-07 22:52:00,
2013-08-07 18:53:00,71.9,58.2,30.08,ESE,118,9.0,17.0,62,0.00,,---,0.00,VWS V14.01,2013-08-07 22:53:00,
2013-08-07 18:56:00,71.8,58.1,30.08,ESE,123,7.0,17.0,62,0.00,,---,0.00,VWS V14.01,2013-08-07 22:56:00,
2013-08-07 18:57:00,71.7,58.0,30.08,East,96,11.0,17.0,62,0.00,,---,0.00,VWS V14.01,2013-08-07 22:57:00,
2013-08-07 18:58:00,71.7,58.0,30.08,ESE,118,9.0,17.0,62,0.00,,---,0.00,VWS V14.01,2013-08-07 22:58:00,
2013-08-07 18:59:00,71.7,58.9,30.09,SE,129,7.0,10.0,64,0.00,,---,0.00,VWS V14.01,2013-08-07 22:59:00,
2013-08-07 19:01:00,71.7,58.9,30.09,ENE,76,8.0,10.0,64,0.00,,---,0.00,VWS V14.01,2013-08-07 23:01:00,
2013-08-07 19:02:00,71.7,58.9,30.09,East,80,8.0,13.0,64,0.00,,---,0.00,VWS V14.01,2013-08-07 23:02:00,
2013-08-07 19:04:00,71.6,58.8,30.09,SE,134,9.0,13.0,64,0.00,,---,0.00,VWS V14.01,2013-08-07 23:04:00,
2013-08-07 19:06:00,71.6,57.5,30.09,SE,128,8.0,13.0,61,0.00,,---,0.00,VWS V14.01,2013-08-07 23:06:00,
2013-08-07 19:08:00,71.6,58.8,30.09,SE,125,5.0,13.0,64,0.00,,---,0.00,VWS V14.01,2013-08-07 23:08:00,
2013-08-07 19:09:00,71.6,59.2,30.09,South,190,10.0,13.0,65,0.00,,---,0.00,VWS V14.01,2013-08-07 23:09:00,
2013-08-07 19:11:00,71.4,58.6,30.09,SE,129,7.0,13.0,64,0.00,,---,0.00,VWS V14.01,2013-08-07 23:11:00,
2013-08-07 19:12:00,71.4,58.6,30.09,East,101,9.0,13.0,64,0.00,,---,0.00,VWS V14.01,2013-08-07 23:12:00,
2013-08-07 19:13:00,71.4,57.7,30.09,East,91,10.0,13.0,62,0.00,,---,0.00,VWS V14.01,2013-08-07 23:13:00,
2013-08-07 19:14:00,71.3,57.6,30.09,East,94,7.0,14.0,62,0.00,,---,0.00,VWS V14.01,2013-08-07 23:14:00,
2013-08-07 19:15:00,71.2,57.5,30.09,SE,141,7.0,14.0,62,0.00,,---,0.00,VWS V14.01,2013-08-07 23:15:00,
2013-08-07 19:17:00,71.1,58.3,30.09,East,86,10.0,14.0,64,0.00,,---,0.00,VWS V14.01,2013-08-07 23:17:00,
2013-08-07 19:19:00,71.0,57.8,30.09,ESE,108,8.0,14.0,63,0.00,,---,0.00,VWS V14.01,2013-08-07 23:19:00,
2013-08-07 19:21:00,71.0,57.8,30.09,East,96,10.0,14.0,63,0.00,,---,0.00,VWS V14.01,2013-08-07 23:21:00,
2013-08-07 19:23:00,70.9,58.1,30.09,ESE,115,9.0,14.0,64,0.00,,---,0.00,VWS V14.01,2013-08-07 23:23:00,
2013-08-07 19:24:00,70.8,58.0,30.09,ESE,122,7.0,14.0,64,0.00,,---,0.00,VWS V14.01,2013-08-07 23:24:00,
2013-08-07 19:25:00,70.8,57.6,30.09,East,96,8.0,14.0,63,0.00,,---,0.00,VWS V14.01,2013-08-07 23:25:00,
2013-08-07 19:26:00,70.8,58.9,30.09,ESE,105,6.0,14.0,66,0.00,,---,0.00,VWS V14.01,2013-08-07 23:26:00,
2013-08-07 19:27:00,70.7,58.8,30.09,East,89,6.0,14.0,66,0.00,,---,0.00,VWS V14.01,2013-08-07 23:27:00,
2013-08-07 19:29:00,70.7,57.9,30.09,SE,130,3.0,8.0,64,0.00,,---,0.00,VWS V14.01,2013-08-07 23:29:00,
2013-08-07 19:31:00,70.6,58.3,30.09,East,92,7.0,8.0,65,0.00,,---,0.00,VWS V14.01,2013-08-07 23:31:00,
2013-08-07 19:32:00,70.5,57.8,30.09,East,93,9.0,11.0,64,0.00,,---,0.00,VWS V14.01,2013-08-07 23:32:00,
2013-08-07 19:34:00,70.4,57.7,30.09,East,100,6.0,11.0,64,0.00,,---,0.00,VWS V14.01,2013-08-07 23:34:00,
2013-08-07 19:36:00,70.3,57.6,30.09,East,100,7.0,11.0,64,0.00,,---,0.00,VWS V14.01,2013-08-07 23:36:00,
2013-08-07 19:37:00,70.2,57.5,30.09,ESE,120,6.0,11.0,64,0.00,,---,0.00,VWS V14.01,2013-08-07 23:37:00,
2013-08-07 19:38:00,70.2,58.7,30.09,ESE,109,6.0,11.0,67,0.00,,---,0.00,VWS V14.01,2013-08-07 23:38:00,
2013-08-07 19:39:00,70.2,58.7,30.09,ESE,103,6.0,11.0,67,0.00,,---,0.00,VWS V14.01,2013-08-07 23:39:00,
2013-08-07 19:42:00,70.1,58.2,30.09,East,87,6.0,11.0,66,0.00,,---,0.00,VWS V14.01,2013-08-07 23:42:00,
2013-08-07 19:43:00,70.1,58.7,30.09,East,79,5.0,11.0,67,0.00,,---,0.00,VWS V14.01,2013-08-07 23:43:00,
2013-08-07 19:44:00,70.0,58.5,30.09,East,91,1.0,11.0,67,0.00,,---,0.00,VWS V14.01,2013-08-07 23:44:00,
2013-08-07 19:45:00,69.9,57.6,30.09,ESE,113,4.0,11.0,65,0.00,,---,0.00,VWS V14.01,2013-08-07 23:45:00,
2013-08-07 19:47:00,69.8,57.5,30.08,SE,131,5.0,11.0,65,0.00,,---,0.00,VWS V14.01,2013-08-07 23:47:00,
2013-08-07 19:49:00,69.7,57.4,30.08,ESE,107,5.0,11.0,65,0.00,,---,0.00,VWS V14.01,2013-08-07 23:49:00,
2013-08-07 19:50:00,69.7,57.4,30.08,ESE,113,5.0,11.0,65,0.00,,---,0.00,VWS V14.01,2013-08-07 23:50:00,
2013-08-07 19:51:00,69.6,58.2,30.09,East,100,3.0,11.0,67,0.00,,---,0.00,VWS V14.01,2013-08-07 23:51:00,
2013-08-07 19:53:00,69.5,57.7,30.08,ENE,70,7.0,12.0,66,0.00,,---,0.00,VWS V14.01,2013-08-07 23:53:00,
2013-08-07 19:54:00,69.4,57.6,30.09,ESE,113,6.0,12.0,66,0.00,,---,0.00,VWS V14.01,2013-08-07 23:54:00,
2013-08-07 19:56:00,69.4,58.4,30.09,East,82,5.0,12.0,68,0.00,,---,0.00,VWS V14.01,2013-08-07 23:56:00,
2013-08-07 19:57:00,69.4,58.0,30.09,ESE,104,6.0,12.0,67,0.00,,---,0.00,VWS V14.01,2013-08-07 23:57:00,
2013-08-07 19:58:00,69.3,57.9,30.09,SSE,152,2.0,12.0,67,0.00,,---,0.00,VWS V14.01,2013-08-07 23:58:00,
2013-08-07 20:00:00,69.3,57.9,30.09,East,98,5.0,10.0,67,0.00,,---,0.00,VWS V14.01,2013-08-08 00:00:00,
2013-08-07 20:01:00,69.2,58.2,30.09,NE,56,7.0,10.0,68,0.00,,---,0.00,VWS V14.01,2013-08-08 00:01:00,
2013-08-07 20:02:00,69.2,58.2,30.09,ESE,115,6.0,10.0,68,0.00,,---,0.00,VWS V14.01,2013-08-08 00:02:00,
2013-08-07 20:03:00,69.2,57.8,30.09,ESE,108,6.0,10.0,67,0.00,,---,0.00,VWS V14.01,2013-08-08 00:03:00,
2013-08-07 20:04:00,69.2,57.8,30.09,ESE,108,4.0,10.0,67,0.00,,---,0.00,VWS V14.01,2013-08-08 00:04:00,
2013-08-07 20:05:00,69.1,58.1,30.09,ESE,105,8.0,10.0,68,0.00,,---,0.00,VWS V14.01,2013-08-08 00:05:00,
2013-08-07 20:07:00,69.0,58.0,30.09,East,81,2.0,10.0,68,0.00,,---,0.00,VWS V14.01,2013-08-08 00:07:00,
2013-08-07 20:08:00,69.0,58.0,30.09,ESE,115,4.0,10.0,68,0.00,,---,0.00,VWS V14.01,2013-08-08 00:08:00,
2013-08-07 20:10:00,69.0,58.0,30.09,East,91,5.0,10.0,68,0.00,,---,0.00,VWS V14.01,2013-08-08 00:10:00,
2013-08-07 20:12:00,68.8,57.8,30.09,North,353,7.0,10.0,68,0.00,,---,0.00,VWS V14.01,2013-08-08 00:12:00,
2013-08-07 20:13:00,68.8,57.8,30.09,ESE,118,8.0,10.0,68,0.00,,---,0.00,VWS V14.01,2013-08-08 00:13:00,
2013-08-07 20:14:00,68.8,58.6,30.09,SE,141,7.0,11.0,70,0.00,,---,0.00,VWS V14.01,2013-08-08 00:14:00,
2013-08-07 20:15:00,68.8,57.8,30.09,SE,140,8.0,11.0,68,0.00,,---,0.00,VWS V14.01,2013-08-08 00:15:00,
2013-08-07 20:16:00,68.8,58.2,30.09,SE,134,5.0,11.0,69,0.00,,---,0.00,VWS V14.01,2013-08-08 00:16:00,
2013-08-07 20:19:00,68.8,58.6,30.09,SE,145,6.0,11.0,70,0.00,,---,0.00,VWS V14.01,2013-08-08 00:19:00,
2013-08-07 20:20:00,68.7,58.1,30.09,ENE,72,8.0,11.0,69,0.00,,---,0.00,VWS V14.01,2013-08-08 00:20:00,
2013-08-07 20:22:00,68.8,59.0,30.10,East,96,7.0,11.0,71,0.00,,---,0.00,VWS V14.01,2013-08-08 00:22:00,
2013-08-07 20:24:00,68.8,58.6,30.10,ESE,121,6.0,13.0,70,0.00,,---,0.00,VWS V14.01,2013-08-08 00:24:00,
2013-08-07 20:25:00,68.8,58.2,30.10,SSE,156,7.0,13.0,69,0.00,,---,0.00,VWS V14.01,2013-08-08 00:25:00,
2013-08-07 20:26:00,68.7,58.1,30.10,SSE,147,9.0,13.0,69,0.00,,---,0.00,VWS V14.01,2013-08-08 00:26:00,
2013-08-07 20:27:00,68.8,59.8,30.10,SE,124,10.0,13.0,73,0.00,,---,0.00,VWS V14.01,2013-08-08 00:27:00,
2013-08-07 20:30:00,68.8,59.0,30.10,SE,124,8.0,13.0,71,0.00,,---,0.00,VWS V14.01,2013-08-08 00:30:00,
2013-08-07 20:31:00,68.8,59.0,30.10,ESE,120,10.0,13.0,71,0.00,,---,0.00,VWS V14.01,2013-08-08 00:31:00,
2013-08-07 20:32:00,68.7,59.7,30.09,ESE,118,8.0,13.0,73,0.00,,---,0.00,VWS V14.01,2013-08-08 00:32:00,
2013-08-07 20:34:00,68.7,59.7,30.09,ENE,72,7.0,13.0,73,0.00,,---,0.00,VWS V14.01,2013-08-08 00:34:00,
2013-08-07 20:35:00,68.7,58.5,30.10,SE,124,12.0,13.0,70,0.00,,---,0.00,VWS V14.01,2013-08-08 00:35:00,
2013-08-07 20:36:00,68.6,58.4,30.10,SE,127,8.0,13.0,70,0.00,,---,0.00,VWS V14.01,2013-08-08 00:36:00,
2013-08-07 20:38:00,68.7,59.3,30.10,SSE,156,7.0,13.0,72,0.00,,---,0.00,VWS V14.01,2013-08-08 00:38:00,
2013-08-07 20:39:00,68.7,59.3,30.10,SSE,164,8.0,13.0,72,0.00,,---,0.00,VWS V14.01,2013-08-08 00:39:00,
2013-08-07 20:40:00,68.6,58.8,30.09,SE,143,8.0,13.0,71,0.00,,---,0.00,VWS V14.01,2013-08-08 00:40:00,
2013-08-07 20:43:00,68.5,58.3,30.09,SE,127,10.0,14.0,70,0.00,,---,0.00,VWS V14.01,2013-08-08 00:43:00,
2013-08-07 20:44:00,68.5,58.3,30.10,ESE,115,10.0,14.0,70,0.00,,---,0.00,VWS V14.01,2013-08-08 00:44:00,
2013-08-07 20:46:00,68.4,58.6,30.10,ESE,111,10.0,14.0,71,0.00,,---,0.00,VWS V14.01,2013-08-08 00:46:00,
2013-08-07 20:49:00,68.4,58.6,30.10,SE,134,8.0,14.0,71,0.00,,---,0.00,VWS V14.01,2013-08-08 00:49:00,
2013-08-07 20:50:00,68.4,59.4,30.10,ESE,115,7.0,14.0,73,0.00,,---,0.00,VWS V14.01,2013-08-08 00:50:00,
2013-08-07 20:51:00,68.4,59.4,30.10,SE,130,3.0,14.0,73,0.00,,---,0.00,VWS V14.01,2013-08-08 00:51:00,
2013-08-07 20:52:00,68.4,59.4,30.10,ESE,115,7.0,14.0,73,0.00,,---,0.00,VWS V14.01,2013-08-08 00:52:00,
2013-08-07 20:54:00,68.4,59.0,30.10,SE,139,4.0,14.0,72,0.00,,---,0.00,VWS V14.01,2013-08-08 00:54:00,
2013-08-07 20:56:00,68.3,59.3,30.10,SSE,147,7.0,14.0,73,0.00,,---,0.00,VWS V14.01,2013-08-08 00:56:00,
2013-08-07 20:57:00,68.3,58.9,30.10,ESE,115,6.0,14.0,72,0.00,,---,0.00,VWS V14.01,2013-08-08 00:57:00,
2013-08-07 21:00:00,68.2,58.8,30.10,SE,132,4.0,8.0,72,0.00,,---,0.00,VWS V14.01,2013-08-08 01:00:00,
2013-08-07 21:01:00,68.1,58.3,30.10,ESE,121,6.0,8.0,71,0.00,,---,0.00,VWS V14.01,2013-08-08 01:01:00,
2013-08-07 21:02:00,68.1,59.1,30.10,SE,129,6.0,8.0,73,0.00,,---,0.00,VWS V14.01,2013-08-08 01:02:00,
2013-08-07 21:03:00,68.1,59.1,30.10,SE,131,5.0,8.0,73,0.00,,---,0.00,VWS V14.01,2013-08-08 01:03:00,
2013-08-07 21:06:00,68.1,58.7,30.10,East,88,5.0,8.0,72,0.00,,---,0.00,VWS V14.01,2013-08-08 01:06:00,
2013-08-07 21:07:00,68.0,59.0,30.10,East,100,5.0,8.0,73,0.00,,---,0.00,VWS V14.01,2013-08-08 01:07:00,
2013-08-07 21:08:00,68.0,59.4,30.10,South,173,4.0,8.0,74,0.00,,---,0.00,VWS V14.01,2013-08-08 01:08:00,
2013-08-07 21:09:00,68.0,59.4,30.10,ENE,65,3.0,8.0,74,0.00,,---,0.00,VWS V14.01,2013-08-08 01:09:00,
2013-08-07 21:11:00,68.1,59.5,30.10,SE,141,6.0,10.0,74,0.00,,---,0.00,VWS V14.01,2013-08-08 01:11:00,
2013-08-07 21:13:00,68.2,60.0,30.10,ESE,118,6.0,10.0,75,0.00,,---,0.00,VWS V14.01,2013-08-08 01:13:00,
2013-08-07 21:14:00,68.2,60.0,30.10,SE,143,3.0,10.0,75,0.00,,---,0.00,VWS V14.01,2013-08-08 01:14:00,
2013-08-07 21:18:00,68.2,59.2,30.10,SE,134,7.0,10.0,73,0.00,,---,0.00,VWS V14.01,2013-08-08 01:18:00,
2013-08-07 21:19:00,68.2,59.6,30.10,ESE,103,6.0,10.0,74,0.00,,---,0.00,VWS V14.01,2013-08-08 01:19:00,
2013-08-07 21:20:00,68.2,59.6,30.10,SE,125,4.0,10.0,74,0.00,,---,0.00,VWS V14.01,2013-08-08 01:20:00,
2013-08-07 21:23:00,67.9,58.2,30.10,SE,128,5.0,10.0,71,0.00,,---,0.00,VWS V14.01,2013-08-08 01:23:00,
2013-08-07 21:25:00,67.9,58.9,30.10,SE,140,5.0,10.0,73,0.00,,---,0.00,VWS V14.01,2013-08-08 01:25:00,
2013-08-07 21:26:00,67.8,58.5,30.10,SE,146,7.0,10.0,72,0.00,,---,0.00,VWS V14.01,2013-08-08 01:26:00,
2013-08-07 21:29:00,67.7,58.7,30.10,ESE,106,6.0,6.0,73,0.00,,---,0.00,VWS V14.01,2013-08-08 01:29:00,
2013-08-07 21:30:00,67.7,58.4,30.10,SE,141,6.0,9.0,72,0.00,,---,0.00,VWS V14.01,2013-08-08 01:30:00,
2013-08-07 21:31:00,67.7,58.4,30.10,ESE,123,8.0,10.0,72,0.00,,---,0.00,VWS V14.01,2013-08-08 01:31:00,
2013-08-07 21:34:00,67.5,58.2,30.09,East,94,7.0,10.0,72,0.00,,---,0.00,VWS V14.01,2013-08-08 01:34:00,
2013-08-07 21:35:00,67.5,58.5,30.10,ESE,115,6.0,10.0,73,0.00,,---,0.00,VWS V14.01,2013-08-08 01:35:00,
2013-08-07 21:36:00,67.6,59.0,30.10,ESE,115,7.0,10.0,74,0.00,,---,0.00,VWS V14.01,2013-08-08 01:36:00,
2013-08-07 21:37:00,67.6,59.0,30.10,East,96,6.0,10.0,74,0.00,,---,0.00,VWS V14.01,2013-08-08 01:37:00,
2013-08-07 21:40:00,67.7,58.4,30.10,East,91,7.0,11.0,72,0.00,,---,0.00,VWS V14.01,2013-08-08 01:40:00,
2013-08-07 21:41:00,67.7,59.1,30.10,East,96,8.0,11.0,74,0.00,,---,0.00,VWS V14.01,2013-08-08 01:41:00,
2013-08-07 21:43:00,67.6,58.7,30.09,East,100,6.0,11.0,73,0.00,,---,0.00,VWS V14.01,2013-08-08 01:43:00,
2013-08-07 21:44:00,67.6,58.7,30.10,ESE,118,5.0,11.0,73,0.00,,---,0.00,VWS V14.01,2013-08-08 01:44:00,
2013-08-07 21:45:00,67.5,59.3,30.09,East,94,9.0,11.0,75,0.00,,---,0.00,VWS V14.01,2013-08-08 01:45:00,
2013-08-07 21:47:00,67.4,58.5,30.09,ESE,113,5.0,11.0,73,0.00,,---,0.00,VWS V14.01,2013-08-08 01:47:00,
2013-08-07 21:48:00,67.3,58.7,30.10,East,101,6.0,11.0,74,0.00,,---,0.00,VWS V14.01,2013-08-08 01:48:00,
2013-08-07 21:51:00,67.4,58.8,30.10,SE,128,3.0,11.0,74,0.00,,---,0.00,VWS V14.01,2013-08-08 01:51:00,
2013-08-07 21:52:00,67.4,58.8,30.10,East,100,5.0,11.0,74,0.00,,---,0.00,VWS V14.01,2013-08-08 01:52:00,
2013-08-07 21:53:00,67.5,58.9,30.10,East,88,6.0,11.0,74,0.00,,---,0.00,VWS V14.01,2013-08-08 01:53:00,
2013-08-07 21:56:00,67.5,58.2,30.10,ESE,111,7.0,11.0,72,0.00,,---,0.00,VWS V14.01,2013-08-08 01:56:00,
2013-08-07 21:57:00,67.5,58.2,30.10,ESE,118,4.0,11.0,72,0.00,,---,0.00,VWS V14.01,2013-08-08 01:57:00,
2013-08-07 21:59:00,67.5,58.5,30.10,East,101,4.0,4.0,73,0.00,,---,0.00,VWS V14.01,2013-08-08 01:59:00,
2013-08-07 22:01:00,67.5,59.3,30.09,East,82,3.0,5.0,75,0.00,,---,0.00,VWS V14.01,2013-08-08 02:01:00,
2013-08-07 22:04:00,67.4,58.5,30.09,East,81,2.0,5.0,73,0.00,,---,0.00,VWS V14.01,2013-08-08 02:04:00,
2013-08-07 22:05:00,67.3,58.7,30.09,ESE,104,3.0,5.0,74,0.00,,---,0.00,VWS V14.01,2013-08-08 02:05:00,
2013-08-07 22:07:00,67.2,59.0,30.09,ENE,73,6.0,6.0,75,0.00,,---,0.00,VWS V14.01,2013-08-08 02:07:00,
2013-08-07 22:09:00,67.1,58.9,30.09,East,79,4.0,6.0,75,0.00,,---,0.00,VWS V14.01,2013-08-08 02:09:00,
2013-08-07 22:10:00,67.1,58.9,30.09,East,96,3.0,6.0,75,0.00,,---,0.00,VWS V14.01,2013-08-08 02:10:00,
2013-08-07 22:13:00,66.9,58.7,30.09,ENE,64,2.0,6.0,75,0.00,,---,0.00,VWS V14.01,2013-08-08 02:13:00,
2013-08-07 22:14:00,66.9,59.1,30.09,ENE,67,3.0,6.0,76,0.00,,---,0.00,VWS V14.01,2013-08-08 02:14:00,
2013-08-07 22:15:00,66.8,58.6,30.09,ENE,74,2.0,6.0,75,0.00,,---,0.00,VWS V14.01,2013-08-08 02:15:00,
2013-08-07 22:16:00,66.8,58.6,30.09,ESE,108,1.0,6.0,75,0.00,,---,0.00,VWS V14.01,2013-08-08 02:16:00,
2013-08-07 22:18:00,66.7,58.5,30.09,ENE,63,1.0,6.0,75,0.00,,---,0.00,VWS V14.01,2013-08-08 02:18:00,
2013-08-07 22:19:00,66.7,58.5,30.09,ENE,57,2.0,6.0,75,0.00,,---,0.00,VWS V14.01,2013-08-08 02:19:00,
2013-08-07 22:20:00,66.7,58.5,30.09,ENE,68,2.0,6.0,75,0.00,,---,0.00,VWS V14.01,2013-08-08 02:20:00,
2013-08-07 22:21:00,66.7,58.5,30.09,East,94,1.0,6.0,75,0.00,,---,0.00,VWS V14.01,2013-08-08 02:21:00,
2013-08-07 22:24:00,66.6,58.4,30.10,NNE,25,0.0,6.0,75,0.00,,---,0.00,VWS V14.01,2013-08-08 02:24:00,
2013-08-07 22:25:00,66.5,58.3,30.10,NNE,25,0.0,6.0,75,0.00,,---,0.00,VWS V14.01,2013-08-08 02:25:00,
2013-08-07 22:26:00,66.5,58.3,30.10,NNE,25,0.0,6.0,75,0.00,,---,0.00,VWS V14.01,2013-08-08 02:26:00,
2013-08-07 22:28:00,66.4,58.2,30.11,NNE,25,0.0,6.0,75,0.00,,---,0.00,VWS V14.01,2013-08-08 02:28:00,
2013-08-07 22:29:00,66.4,58.2,30.11,NNE,25,0.0,0.0,75,0.00,,---,0.00,VWS V14.01,2013-08-08 02:29:00,
2013-08-07 22:30:00,66.4,58.2,30.11,NNE,26,0.0,0.0,75,0.00,,---,0.00,VWS V14.01,2013-08-08 02:30:00,
2013-08-07 22:31:00,66.3,58.2,30.11,NNE,26,0.0,0.0,75,0.00,,---,0.00,VWS V14.01,2013-08-08 02:31:00,
2013-08-07 22:32:00,66.3,58.5,30.10,SSE,153,2.0,4.0,76,0.00,,---,0.00,VWS V14.01,2013-08-08 02:32:00,
2013-08-07 22:33:00,66.4,59.3,30.10,ESE,113,5.0,5.0,78,0.00,,---,0.00,VWS V14.01,2013-08-08 02:33:00,
2013-08-07 22:35:00,66.5,59.4,30.10,ESE,113,4.0,6.0,78,0.00,,---,0.00,VWS V14.01,2013-08-08 02:35:00,
2013-08-07 22:36:00,66.6,59.2,30.10,ESE,121,5.0,6.0,77,0.00,,---,0.00,VWS V14.01,2013-08-08 02:36:00,
2013-08-07 22:38:00,66.7,59.3,30.10,South,169,2.0,6.0,77,0.00,,---,0.00,VWS V14.01,2013-08-08 02:38:00,
2013-08-07 22:39:00,66.7,59.6,30.10,SSE,156,6.0,6.0,78,0.00,,---,0.00,VWS V14.01,2013-08-08 02:39:00,
2013-08-07 22:40:00,66.8,59.4,30.10,SE,134,4.0,8.0,77,0.00,,---,0.00,VWS V14.01,2013-08-08 02:40:00,
2013-08-07 22:41:00,66.8,59.4,30.09,SE,136,5.0,8.0,77,0.00,,---,0.00,VWS V14.01,2013-08-08 02:41:00,
2013-08-07 22:43:00,66.9,60.2,30.09,ESE,112,5.0,8.0,79,0.00,,---,0.00,VWS V14.01,2013-08-08 02:43:00,
2013-08-07 22:44:00,66.9,60.2,30.09,SE,128,4.0,8.0,79,0.00,,---,0.00,VWS V14.01,2013-08-08 02:44:00,
2013-08-07 22:47:00,66.9,59.1,30.09,SE,142,6.0,8.0,76,0.00,,---,0.00,VWS V14.01,2013-08-08 02:47:00,
2013-08-07 22:48:00,66.9,59.1,30.10,SE,146,4.0,8.0,76,0.00,,---,0.00,VWS V14.01,2013-08-08 02:48:00,
2013-08-07 22:49:00,66.9,59.1,30.10,SE,129,4.0,8.0,76,0.00,,---,0.00,VWS V14.01,2013-08-08 02:49:00,
2013-08-07 22:51:00,66.9,58.7,30.10,SW,228,3.0,8.0,75,0.00,,---,0.00,VWS V14.01,2013-08-08 02:51:00,
2013-08-07 22:52:00,66.9,59.5,30.10,SE,124,5.0,8.0,77,0.00,,---,0.00,VWS V14.01,2013-08-08 02:52:00,
2013-08-07 22:53:00,67.0,59.9,30.10,ESE,113,11.0,11.0,78,0.00,,---,0.00,VWS V14.01,2013-08-08 02:53:00,
2013-08-07 22:54:00,67.0,59.9,30.10,SE,146,8.0,11.0,78,0.00,,---,0.00,VWS V14.01,2013-08-08 02:54:00,
2013-08-07 22:56:00,67.0,58.8,30.10,East,86,6.0,11.0,75,0.00,,---,0.00,VWS V14.01,2013-08-08 02:56:00,
2013-08-07 22:57:00,67.1,59.7,30.10,ESE,113,5.0,11.0,77,0.00,,---,0.00,VWS V14.01,2013-08-08 02:57:00,
2013-08-07 22:58:00,67.1,59.7,30.10,West,269,4.0,11.0,77,0.00,,---,0.00,VWS V14.01,2013-08-08 02:58:00,
2013-08-07 22:59:00,67.1,59.7,30.09,SE,131,8.0,8.0,77,0.00,,---,0.00,VWS V14.01,2013-08-08 02:59:00,
2013-08-07 23:01:00,67.1,59.3,30.09,ESE,115,5.0,8.0,76,0.00,,---,0.00,VWS V14.01,2013-08-08 03:01:00,
2013-08-07 23:02:00,67.1,59.7,30.09,ESE,103,6.0,8.0,77,0.00,,---,0.00,VWS V14.01,2013-08-08 03:02:00,
2013-08-07 23:03:00,67.0,58.8,30.09,East,94,5.0,8.0,75,0.00,,---,0.00,VWS V14.01,2013-08-08 03:03:00,
2013-08-07 23:04:00,67.0,59.6,30.09,SE,141,4.0,8.0,77,0.00,,---,0.00,VWS V14.01,2013-08-08 03:04:00,
2013-08-07 23:05:00,67.0,59.6,30.09,East,100,5.0,8.0,77,0.00,,---,0.00,VWS V14.01,2013-08-08 03:05:00,
2013-08-07 23:06:00,66.7,59.3,30.09,SW,235,7.0,9.0,77,0.00,,---,0.00,VWS V14.01,2013-08-08 03:06:00,
2013-08-07 23:07:00,67.0,59.6,30.09,East,83,2.0,8.0,77,0.00,,---,0.00,VWS V14.01,2013-08-08 03:07:00,
2013-08-07 23:08:00,66.9,59.5,30.10,ESE,103,1.0,8.0,77,0.00,,---,0.00,VWS V14.01,2013-08-08 03:08:00,
2013-08-07 23:09:00,66.9,59.5,30.10,East,79,3.0,8.0,77,0.00,,---,0.00,VWS V14.01,2013-08-08 03:09:00,
2013-08-07 23:10:00,66.9,59.8,30.10,East,93,1.0,8.0,78,0.00,,---,0.00,VWS V14.01,2013-08-08 03:10:00,
2013-08-07 23:11:00,66.7,58.5,30.09,SE,141,9.0,12.0,75,0.00,,---,0.00,VWS V14.01,2013-08-08 03:11:00,
2013-08-07 23:12:00,66.7,59.3,30.09,SE,137,7.0,12.0,77,0.00,,---,0.00,VWS V14.01,2013-08-08 03:12:00,
2013-08-07 23:13:00,66.8,59.0,30.10,SSE,159,1.0,8.0,76,0.00,,---,0.00,VWS V14.01,2013-08-08 03:13:00,
2013-08-07 23:14:00,66.7,58.5,30.10,SSE,164,2.0,8.0,75,0.00,,---,0.00,VWS V14.01,2013-08-08 03:14:00,
2013-08-07 23:15:00,66.7,58.5,30.10,WNW,287,0.0,8.0,75,0.00,,---,0.00,VWS V14.01,2013-08-08 03:15:00,
2013-08-07 23:16:00,66.7,58.9,30.10,SSW,197,0.0,8.0,76,0.00,,---,0.00,VWS V14.01,2013-08-08 03:16:00,
2013-08-07 23:17:00,66.7,58.9,30.09,ESE,108,8.0,12.0,76,0.00,,---,0.00,VWS V14.01,2013-08-08 03:17:00,
2013-08-07 23:18:00,66.7,58.9,30.09,SSE,155,8.0,12.0,76,0.00,,---,0.00,VWS V14.01,2013-08-08 03:18:00,
2013-08-07 23:19:00,66.7,59.3,30.09,North,354,4.0,12.0,77,0.00,,---,0.00,VWS V14.01,2013-08-08 03:19:00,
2013-08-07 23:20:00,66.8,59.0,30.10,SSE,164,0.0,8.0,76,0.00,,---,0.00,VWS V14.01,2013-08-08 03:20:00,
2013-08-07 23:21:00,66.8,59.0,30.10,SSE,150,1.0,8.0,76,0.00,,---,0.00,VWS V14.01,2013-08-08 03:21:00,
2013-08-07 23:22:00,66.8,59.0,30.10,West,269,1.0,8.0,76,0.00,,---,0.00,VWS V14.01,2013-08-08 03:22:00,
2013-08-07 23:25:00,66.6,58.8,30.10,NNW,343,1.0,8.0,76,0.00,,---,0.00,VWS V14.01,2013-08-08 03:25:00,
2013-08-07 23:26:00,66.6,58.8,30.10,NNW,330,3.0,8.0,76,0.00,,---,0.00,VWS V14.01,2013-08-08 03:26:00,
2013-08-07 23:27:00,66.4,58.6,30.10,North,8,2.0,8.0,76,0.00,,---,0.00,VWS V14.01,2013-08-08 03:27:00,
2013-08-07 23:28:00,66.3,58.5,30.10,North,360,0.0,8.0,76,0.00,,---,0.00,VWS V14.01,2013-08-08 03:28:00,
2013-08-07 23:31:00,66.0,58.2,30.10,North,1,0.0,1.0,76,0.00,,---,0.00,VWS V14.01,2013-08-08 03:31:00,
2013-08-07 23:32:00,65.9,58.1,30.10,North,1,0.0,1.0,76,0.00,,---,0.00,VWS V14.01,2013-08-08 03:32:00,
2013-08-07 23:33:00,65.9,58.5,30.10,NNW,341,3.0,3.0,77,0.00,,---,0.00,VWS V14.01,2013-08-08 03:33:00,
2013-08-07 23:37:00,65.9,59.2,30.10,South,186,2.0,6.0,79,0.00,,---,0.00,VWS V14.01,2013-08-08 03:37:00,
2013-08-07 23:38:00,66.0,58.6,30.10,SSE,152,2.0,6.0,77,0.00,,---,0.00,VWS V14.01,2013-08-08 03:38:00,
2013-08-07 23:39:00,66.1,58.7,30.10,SSW,210,1.0,6.0,77,0.00,,---,0.00,VWS V14.01,2013-08-08 03:39:00,
2013-08-07 23:42:00,66.3,58.9,30.09,ESE,121,3.0,6.0,77,0.00,,---,0.00,VWS V14.01,2013-08-08 03:42:00,
2013-08-07 23:43:00,66.3,58.9,30.09,SE,143,4.0,6.0,77,0.00,,---,0.00,VWS V14.01,2013-08-08 03:43:00,
2013-08-07 23:44:00,66.4,59.0,30.09,ESE,110,4.0,6.0,77,0.00,,---,0.00,VWS V14.01,2013-08-08 03:44:00,
2013-08-07 23:47:00,66.4,58.6,30.09,West,274,6.0,6.0,76,0.00,,---,0.00,VWS V14.01,2013-08-08 03:47:00,
2013-08-07 23:48:00,66.5,58.7,30.09,SE,143,5.0,6.0,76,0.00,,---,0.00,VWS V14.01,2013-08-08 03:48:00,
2013-08-07 23:49:00,66.5,58.7,30.10,SSW,193,2.0,9.0,76,0.00,,---,0.00,VWS V14.01,2013-08-08 03:49:00,
2013-08-07 23:50:00,66.5,58.7,30.10,SSE,150,3.0,9.0,76,0.00,,---,0.00,VWS V14.01,2013-08-08 03:50:00,
2013-08-07 23:52:00,66.5,58.7,30.10,SSE,154,6.0,9.0,76,0.00,,---,0.00,VWS V14.01,2013-08-08 03:52:00,
2013-08-07 23:54:00,66.6,58.8,30.10,ESE,106,3.0,9.0,76,0.00,,---,0.00,VWS V14.01,2013-08-08 03:54:00,
2013-08-07 23:55:00,66.6,59.2,30.10,ESE,106,2.0,9.0,77,0.00,,---,0.00,VWS V14.01,2013-08-08 03:55:00,
2013-08-07 23:57:00,66.6,58.8,30.10,ESE,121,7.0,9.0,76,0.00,,---,0.00,VWS V14.01,2013-08-08 03:57:00,